Time,TemperatureF,DewpointF,PressureIn,WindDirection,WindDirectionDegrees,WindSpeedMPH,WindSpeedGustMPH,Humidity,HourlyPrecipIn,Conditions,Clouds,dailyrainin,SoftwareType,DateUTC
2013-02-05 00:01:00,40.5,23.3,29.96,WSW,248,0.0,2.0,50,0.00,,,0.00,Wunderground v.1.13,2013-02-05 08:01:00,
2013-02-05 00:03:00,40.5,23.3,29.96,WSW,248,0.0,2.0,50,0.00,,,0.00,Wunderground v.1.13,2013-02-05 08:03:00,
2013-02-05 00:05:00,40.5,23.3,29.96,WSW,248,0.0,2.0,50,0.00,,,0.00,Wunderground v.1.13,2013-02-05 08:05:00,
2013-02-05 00:07:00,40.5,23.3,29.96,WSW,248,0.0,2.0,50,0.00,,,0.00,Wunderground v.1.13,2013-02-05 08:07:00,
2013-02-05 00:09:00,40.5,23.3,29.96,WSW,248,0.0,2.0,50,0.00,,,0.00,Wunderground v.1.13,2013-02-05 08:09:00,
2013-02-05 00:11:00,40.5,23.3,29.96,WSW,248,0.0,2.0,50,0.00,,,0.00,Wunderground v.1.13,2013-02-05 08:11:00,
2013-02-05 00:13:00,40.5,23.3,29.96,WSW,248,0.0,2.0,50,0.00,,,0.00,Wunderground v.1.13,2013-02-05 08:13:00,
2013-02-05 00:15:00,40.5,23.3,29.96,WSW,248,0.0,2.0,50,0.00,,,0.00,Wunderground v.1.13,2013-02-05 08:15:00,
2013-02-05 00:17:00,40.5,23.3,29.96,WSW,248,0.0,2.0,50,0.00,,,0.00,Wunderground v.1.13,2013-02-05 08:17:00,
2013-02-05 00:19:00,40.5,23.3,29.96,WSW,248,0.0,2.0,50,0.00,,,0.00,Wunderground v.1.13,2013-02-05 08:19:00,
2013-02-05 00:21:00,40.5,23.3,29.96,WSW,248,0.0,2.0,50,0.00,,,0.00,Wunderground v.1.13,2013-02-05 08:21:00,
2013-02-05 00:23:00,39.6,23.4,29.96,WSW,248,0.0,1.0,52,0.00,,,0.00,Wunderground v.1.13,2013-02-05 08:23:00,
2013-02-05 00:25:00,39.6,23.4,29.96,WSW,248,0.0,1.0,52,0.00,,,0.00,Wunderground v.1.13,2013-02-05 08:25:00,
2013-02-05 00:27:00,39.6,23.4,29.96,WSW,248,0.0,1.0,52,0.00,,,0.00,Wunderground v.1.13,2013-02-05 08:27:00,
2013-02-05 00:29:00,39.6,23.4,29.96,WSW,248,0.0,1.0,52,0.00,,,0.00,Wunderground v.1.13,2013-02-05 08:29:00,
2013-02-05 00:31:00,39.6,23.4,29.96,WSW,248,0.0,1.0,52,0.00,,,0.00,Wunderground v.1.13,2013-02-05 08:31:00,
2013-02-05 00:33:00,39.6,23.4,29.96,WSW,248,0.0,1.0,52,0.00,,,0.00,Wunderground v.1.13,2013-02-05 08:33:00,
2013-02-05 00:35:00,39.6,23.4,29.96,WSW,248,0.0,1.0,52,0.00,,,0.00,Wunderground v.1.13,2013-02-05 08:35:00,
2013-02-05 00:37:00,39.6,23.4,29.96,WSW,248,0.0,1.0,52,0.00,,,0.00,Wunderground v.1.13,2013-02-05 08:37:00,
2013-02-05 00:39:00,38.6,23.8,29.96,WSW,248,0.0,2.0,55,0.00,,,0.00,Wunderground v.1.13,2013-02-05 08:39:00,
2013-02-05 00:41:00,38.6,23.8,29.96,WSW,248,0.0,2.0,55,0.00,,,0.00,Wunderground v.1.13,2013-02-05 08:41:00,
2013-02-05 00:43:00,38.6,23.8,29.96,WSW,248,0.0,2.0,55,0.00,,,0.00,Wunderground v.1.13,2013-02-05 08:43:00,
2013-02-05 00:45:00,38.6,23.8,29.96,WSW,248,0.0,2.0,55,0.00,,,0.00,Wunderground v.1.13,2013-02-05 08:45:00,
2013-02-05 00:47:00,38.6,23.8,29.96,WSW,248,0.0,2.0,55,0.00,,,0.00,Wunderground v.1.13,2013-02-05 08:47:00,
2013-02-05 00:49:00,38.6,23.8,29.96,WSW,248,0.0,2.0,55,0.00,,,0.00,Wunderground v.1.13,2013-02-05 08:49:00,
2013-02-05 00:51:00,38.6,23.8,29.96,WSW,248,0.0,2.0,55,0.00,,,0.00,Wunderground v.1.13,2013-02-05 08:51:00,
2013-02-05 00:53:00,38.0,23.3,29.96,WSW,248,0.0,1.0,55,0.00,,,0.00,Wunderground v.1.13,2013-02-05 08:53:00,
2013-02-05 00:55:00,38.0,23.3,29.96,WSW,248,0.0,1.0,55,0.00,,,0.00,Wunderground v.1.13,2013-02-05 08:55:00,
2013-02-05 00:57:00,38.0,23.3,29.96,WSW,248,0.0,1.0,55,0.00,,,0.00,Wunderground v.1.13,2013-02-05 08:57:00,
2013-02-05 00:59:00,38.0,23.3,29.96,WSW,248,0.0,1.0,55,0.00,,,0.00,Wunderground v.1.13,2013-02-05 08:59:00,
2013-02-05 01:01:00,38.0,23.3,29.96,WSW,248,0.0,1.0,55,0.00,,,0.00,Wunderground v.1.13,2013-02-05 09:01:00,
2013-02-05 01:03:00,38.0,23.3,29.96,WSW,248,0.0,1.0,55,0.00,,,0.00,Wunderground v.1.13,2013-02-05 09:03:00,
2013-02-05 01:05:00,38.0,23.3,29.96,WSW,248,0.0,1.0,55,0.00,,,0.00,Wunderground v.1.13,2013-02-05 09:05:00,
2013-02-05 01:07:00,38.0,23.3,29.96,WSW,248,0.0,1.0,55,0.00,,,0.00,Wunderground v.1.13,2013-02-05 09:07:00,
2013-02-05 01:09:00,37.8,24.3,30.03,N/A,-737280,0.0,0.0,58,0.00,,,0.00,Wunderground v.1.13,2013-02-05 09:09:00,
2013-02-05 01:11:00,37.8,24.3,30.03,N/A,-737280,0.0,0.0,58,0.00,,,0.00,Wunderground v.1.13,2013-02-05 09:11:00,
2013-02-05 01:13:00,37.8,24.3,30.03,N/A,-737280,0.0,0.0,58,0.00,,,0.00,Wunderground v.1.13,2013-02-05 09:13:00,
2013-02-05 01:15:00,37.8,24.3,30.03,N/A,-737280,0.0,0.0,58,0.00,,,0.00,Wunderground v.1.13,2013-02-05 09:15:00,
2013-02-05 01:17:00,37.8,24.3,30.03,N/A,-737280,0.0,0.0,58,0.00,,,0.00,Wunderground v.1.13,2013-02-05 09:17:00,
2013-02-05 01:19:00,37.8,24.3,30.03,N/A,-737280,0.0,0.0,58,0.00,,,0.00,Wunderground v.1.13,2013-02-05 09:19:00,
2013-02-05 01:21:00,37.8,24.3,30.03,N/A,-737280,0.0,0.0,58,0.00,,,0.00,Wunderground v.1.13,2013-02-05 09:21:00,
2013-02-05 01:23:00,37.2,22.9,30.04,N/A,-737280,0.0,0.0,56,0.00,,,0.00,Wunderground v.1.13,2013-02-05 09:23:00,
2013-02-05 01:25:00,37.2,22.9,30.04,N/A,-737280,0.0,0.0,56,0.00,,,0.00,Wunderground v.1.13,2013-02-05 09:25:00,
2013-02-05 01:27:00,37.2,22.9,30.04,N/A,-737280,0.0,0.0,56,0.00,,,0.00,Wunderground v.1.13,2013-02-05 09:27:00,
2013-02-05 01:29:00,37.2,22.9,30.04,N/A,-737280,0.0,0.0,56,0.00,,,0.00,Wunderground v.1.13,2013-02-05 09:29:00,
2013-02-05 01:31:00,37.2,22.9,30.04,N/A,-737280,0.0,0.0,56,0.00,,,0.00,Wunderground v.1.13,2013-02-05 09:31:00,
2013-02-05 01:33:00,37.2,22.9,30.04,N/A,-737280,0.0,0.0,56,0.00,,,0.00,Wunderground v.1.13,2013-02-05 09:33:00,
2013-02-05 01:35:00,37.2,22.9,30.04,N/A,-737280,0.0,0.0,56,0.00,,,0.00,Wunderground v.1.13,2013-02-05 09:35:00,
2013-02-05 01:37:00,37.2,22.9,30.04,N/A,-737280,0.0,0.0,56,0.00,,,0.00,Wunderground v.1.13,2013-02-05 09:37:00,
2013-02-05 01:39:00,36.3,22.9,30.04,N/A,-737280,0.0,0.0,58,0.00,,,0.00,Wunderground v.1.13,2013-02-05 09:39:00,
2013-02-05 01:41:00,36.3,22.9,30.04,N/A,-737280,0.0,0.0,58,0.00,,,0.00,Wunderground v.1.13,2013-02-05 09:41:00,
2013-02-05 01:43:00,36.3,22.9,30.04,N/A,-737280,0.0,0.0,58,0.00,,,0.00,Wunderground v.1.13,2013-02-05 09:43:00,
2013-02-05 01:45:00,36.3,22.9,30.04,N/A,-737280,0.0,0.0,58,0.00,,,0.00,Wunderground v.1.13,2013-02-05 09:45:00,
2013-02-05 01:47:00,36.3,22.9,30.04,N/A,-737280,0.0,0.0,58,0.00,,,0.00,Wunderground v.1.13,2013-02-05 09:47:00,
2013-02-05 01:49:00,36.3,22.9,30.04,N/A,-737280,0.0,0.0,58,0.00,,,0.00,Wunderground v.1.13,2013-02-05 09:49:00,
2013-02-05 01:51:00,36.3,22.9,30.04,N/A,-737280,0.0,0.0,58,0.00,,,0.00,Wunderground v.1.13,2013-02-05 09:51:00,
2013-02-05 01:53:00,35.8,23.3,30.04,WSW,248,0.0,1.0,60,0.00,,,0.00,Wunderground v.1.13,2013-02-05 09:53:00,
2013-02-05 01:55:00,35.8,23.3,30.04,WSW,248,0.0,1.0,60,0.00,,,0.00,Wunderground v.1.13,2013-02-05 09:55:00,
2013-02-05 01:57:00,35.8,23.3,30.04,WSW,248,0.0,1.0,60,0.00,,,0.00,Wunderground v.1.13,2013-02-05 09:57:00,
2013-02-05 01:59:00,35.8,23.3,30.04,WSW,248,0.0,1.0,60,0.00,,,0.00,Wunderground v.1.13,2013-02-05 09:59:00,
2013-02-05 02:01:00,35.8,23.3,30.04,WSW,248,0.0,1.0,60,0.00,,,0.00,Wunderground v.1.13,2013-02-05 10:01:00,
2013-02-05 02:03:00,35.8,23.3,30.04,WSW,248,0.0,1.0,60,0.00,,,0.00,Wunderground v.1.13,2013-02-05 10:03:00,
2013-02-05 02:05:00,35.8,23.3,30.04,WSW,248,0.0,1.0,60,0.00,,,0.00,Wunderground v.1.13,2013-02-05 10:05:00,
2013-02-05 02:07:00,35.8,23.3,30.04,WSW,248,0.0,1.0,60,0.00,,,0.00,Wunderground v.1.13,2013-02-05 10:07:00,
2013-02-05 02:09:00,35.9,23.7,30.04,WSW,248,0.0,1.0,61,0.00,,,0.00,Wunderground v.1.13,2013-02-05 10:09:00,
2013-02-05 02:11:00,35.9,23.7,30.04,WSW,248,0.0,1.0,61,0.00,,,0.00,Wunderground v.1.13,2013-02-05 10:11:00,
2013-02-05 02:13:00,35.9,23.7,30.04,WSW,248,0.0,1.0,61,0.00,,,0.00,Wunderground v.1.13,2013-02-05 10:13:00,
2013-02-05 02:15:00,35.9,23.7,30.04,WSW,248,0.0,1.0,61,0.00,,,0.00,Wunderground v.1.13,2013-02-05 10:15:00,
2013-02-05 02:17:00,35.9,23.7,30.04,WSW,248,0.0,1.0,61,0.00,,,0.00,Wunderground v.1.13,2013-02-05 10:17:00,
2013-02-05 02:19:00,35.9,23.7,30.04,WSW,248,0.0,1.0,61,0.00,,,0.00,Wunderground v.1.13,2013-02-05 10:19:00,
2013-02-05 02:21:00,35.9,23.7,30.04,WSW,248,0.0,1.0,61,0.00,,,0.00,Wunderground v.1.13,2013-02-05 10:21:00,
2013-02-05 02:23:00,35.8,23.7,30.04,N/A,-737280,0.0,0.0,61,0.00,,,0.00,Wunderground v.1.13,2013-02-05 10:23:00,
2013-02-05 02:25:00,35.8,23.7,30.04,N/A,-737280,0.0,0.0,61,0.00,,,0.00,Wunderground v.1.13,2013-02-05 10:25:00,
2013-02-05 02:27:00,35.8,23.7,30.04,N/A,-737280,0.0,0.0,61,0.00,,,0.00,Wunderground v.1.13,2013-02-05 10:27:00,
2013-02-05 02:29:00,35.8,23.7,30.04,N/A,-737280,0.0,0.0,61,0.00,,,0.00,Wunderground v.1.13,2013-02-05 10:29:00,
2013-02-05 02:31:00,35.8,23.7,30.04,N/A,-737280,0.0,0.0,61,0.00,,,0.00,Wunderground v.1.13,2013-02-05 10:31:00,
2013-02-05 02:33:00,35.8,23.7,30.04,N/A,-737280,0.0,0.0,61,0.00,,,0.00,Wunderground v.1.13,2013-02-05 10:33:00,
2013-02-05 02:35:00,35.8,23.7,30.04,N/A,-737280,0.0,0.0,61,0.00,,,0.00,Wunderground v.1.13,2013-02-05 10:35:00,
2013-02-05 02:37:00,35.8,23.7,30.04,N/A,-737280,0.0,0.0,61,0.00,,,0.00,Wunderground v.1.13,2013-02-05 10:37:00,
2013-02-05 02:39:00,35.5,22.2,30.03,WSW,248,0.0,1.0,58,0.00,,,0.00,Wunderground v.1.13,2013-02-05 10:39:00,
2013-02-05 02:41:00,35.5,22.2,30.03,WSW,248,0.0,1.0,58,0.00,,,0.00,Wunderground v.1.13,2013-02-05 10:41:00,
2013-02-05 02:43:00,35.5,22.2,30.03,WSW,248,0.0,1.0,58,0.00,,,0.00,Wunderground v.1.13,2013-02-05 10:43:00,
2013-02-05 02:45:00,35.5,22.2,30.03,WSW,248,0.0,1.0,58,0.00,,,0.00,Wunderground v.1.13,2013-02-05 10:45:00,
2013-02-05 02:47:00,35.5,22.2,30.03,WSW,248,0.0,1.0,58,0.00,,,0.00,Wunderground v.1.13,2013-02-05 10:47:00,
2013-02-05 02:49:00,35.5,22.2,30.03,WSW,248,0.0,1.0,58,0.00,,,0.00,Wunderground v.1.13,2013-02-05 10:49:00,
2013-02-05 02:51:00,35.5,22.2,30.03,WSW,248,0.0,1.0,58,0.00,,,0.00,Wunderground v.1.13,2013-02-05 10:51:00,
2013-02-05 02:53:00,34.6,22.1,30.03,WSW,248,0.0,1.0,60,0.00,,,0.00,Wunderground v.1.13,2013-02-05 10:53:00,
2013-02-05 02:55:00,34.6,22.1,30.03,WSW,248,0.0,1.0,60,0.00,,,0.00,Wunderground v.1.13,2013-02-05 10:55:00,
2013-02-05 02:57:00,34.6,22.1,30.03,WSW,248,0.0,1.0,60,0.00,,,0.00,Wunderground v.1.13,2013-02-05 10:57:00,
2013-02-05 02:59:00,34.6,22.1,30.03,WSW,248,0.0,1.0,60,0.00,,,0.00,Wunderground v.1.13,2013-02-05 10:59:00,
2013-02-05 03:01:00,34.6,22.1,30.03,WSW,248,0.0,1.0,60,0.00,,,0.00,Wunderground v.1.13,2013-02-05 11:01:00,
2013-02-05 03:03:00,34.6,22.1,30.03,WSW,248,0.0,1.0,60,0.00,,,0.00,Wunderground v.1.13,2013-02-05 11:03:00,
2013-02-05 03:05:00,34.6,22.1,30.03,WSW,248,0.0,1.0,60,0.00,,,0.00,Wunderground v.1.13,2013-02-05 11:05:00,
2013-02-05 03:07:00,34.6,22.1,30.03,WSW,248,0.0,1.0,60,0.00,,,0.00,Wunderground v.1.13,2013-02-05 11:07:00,
2013-02-05 03:09:00,34.1,22.4,30.03,WSW,248,0.0,2.0,62,0.00,,,0.00,Wunderground v.1.13,2013-02-05 11:09:00,
2013-02-05 03:11:00,34.1,22.4,30.03,WSW,248,0.0,2.0,62,0.00,,,0.00,Wunderground v.1.13,2013-02-05 11:11:00,
2013-02-05 03:13:00,34.1,22.4,30.03,WSW,248,0.0,2.0,62,0.00,,,0.00,Wunderground v.1.13,2013-02-05 11:13:00,
2013-02-05 03:15:00,34.1,22.4,30.03,WSW,248,0.0,2.0,62,0.00,,,0.00,Wunderground v.1.13,2013-02-05 11:15:00,
2013-02-05 03:17:00,34.1,22.4,30.03,WSW,248,0.0,2.0,62,0.00,,,0.00,Wunderground v.1.13,2013-02-05 11:17:00,
2013-02-05 03:19:00,34.1,22.4,30.03,WSW,248,0.0,2.0,62,0.00,,,0.00,Wunderground v.1.13,2013-02-05 11:19:00,
2013-02-05 03:21:00,34.1,22.4,30.03,WSW,248,0.0,2.0,62,0.00,,,0.00,Wunderground v.1.13,2013-02-05 11:21:00,
2013-02-05 03:23:00,34.0,22.3,30.03,WSW,248,0.0,1.0,62,0.00,,,0.00,Wunderground v.1.13,2013-02-05 11:23:00,
2013-02-05 03:25:00,34.0,22.3,30.03,WSW,248,0.0,1.0,62,0.00,,,0.00,Wunderground v.1.13,2013-02-05 11:25:00,
2013-02-05 03:27:00,34.0,22.3,30.03,WSW,248,0.0,1.0,62,0.00,,,0.00,Wunderground v.1.13,2013-02-05 11:27:00,
2013-02-05 03:29:00,34.0,22.3,30.03,WSW,248,0.0,1.0,62,0.00,,,0.00,Wunderground v.1.13,2013-02-05 11:29:00,
2013-02-05 03:31:00,34.0,22.3,30.03,WSW,248,0.0,1.0,62,0.00,,,0.00,Wunderground v.1.13,2013-02-05 11:31:00,
2013-02-05 03:33:00,34.0,22.3,30.03,WSW,248,0.0,1.0,62,0.00,,,0.00,Wunderground v.1.13,2013-02-05 11:33:00,
2013-02-05 03:35:00,34.0,22.3,30.03,WSW,248,0.0,1.0,62,0.00,,,0.00,Wunderground v.1.13,2013-02-05 11:35:00,
2013-02-05 03:37:00,34.0,22.3,30.03,WSW,248,0.0,1.0,62,0.00,,,0.00,Wunderground v.1.13,2013-02-05 11:37:00,
2013-02-05 03:39:00,33.8,22.5,30.03,WSW,248,0.0,1.0,63,0.00,,,0.00,Wunderground v.1.13,2013-02-05 11:39:00,
2013-02-05 03:41:00,33.8,22.5,30.03,WSW,248,0.0,1.0,63,0.00,,,0.00,Wunderground v.1.13,2013-02-05 11:41:00,
2013-02-05 03:43:00,33.8,22.5,30.03,WSW,248,0.0,1.0,63,0.00,,,0.00,Wunderground v.1.13,2013-02-05 11:43:00,
2013-02-05 03:45:00,33.8,22.5,30.03,WSW,248,0.0,1.0,63,0.00,,,0.00,Wunderground v.1.13,2013-02-05 11:45:00,
2013-02-05 03:47:00,33.8,22.5,30.03,WSW,248,0.0,1.0,63,0.00,,,0.00,Wunderground v.1.13,2013-02-05 11:47:00,
2013-02-05 03:49:00,33.8,22.5,30.03,WSW,248,0.0,1.0,63,0.00,,,0.00,Wunderground v.1.13,2013-02-05 11:49:00,
2013-02-05 03:51:00,33.8,22.5,30.03,WSW,248,0.0,1.0,63,0.00,,,0.00,Wunderground v.1.13,2013-02-05 11:51:00,
2013-02-05 03:53:00,33.2,21.6,30.04,WSW,248,0.0,2.0,62,0.00,,,0.00,Wunderground v.1.13,2013-02-05 11:53:00,
2013-02-05 03:55:00,33.2,21.6,30.04,WSW,248,0.0,2.0,62,0.00,,,0.00,Wunderground v.1.13,2013-02-05 11:55:00,
2013-02-05 03:57:00,33.2,21.6,30.04,WSW,248,0.0,2.0,62,0.00,,,0.00,Wunderground v.1.13,2013-02-05 11:57:00,
2013-02-05 03:59:00,33.2,21.6,30.04,WSW,248,0.0,2.0,62,0.00,,,0.00,Wunderground v.1.13,2013-02-05 11:59:00,
2013-02-05 04:01:00,33.2,21.6,30.04,WSW,248,0.0,2.0,62,0.00,,,0.00,Wunderground v.1.13,2013-02-05 12:01:00,
2013-02-05 04:03:00,33.2,21.6,30.04,WSW,248,0.0,2.0,62,0.00,,,0.00,Wunderground v.1.13,2013-02-05 12:03:00,
2013-02-05 04:05:00,33.2,21.6,30.04,WSW,248,0.0,2.0,62,0.00,,,0.00,Wunderground v.1.13,2013-02-05 12:05:00,
2013-02-05 04:07:00,33.2,21.6,30.04,WSW,248,0.0,2.0,62,0.00,,,0.00,Wunderground v.1.13,2013-02-05 12:07:00,
2013-02-05 04:09:00,31.6,20.4,30.04,WSW,248,1.0,3.0,63,0.00,,,0.00,Wunderground v.1.13,2013-02-05 12:09:00,
2013-02-05 04:11:00,31.6,20.4,30.04,WSW,248,1.0,3.0,63,0.00,,,0.00,Wunderground v.1.13,2013-02-05 12:11:00,
2013-02-05 04:13:00,31.6,20.4,30.04,WSW,248,1.0,3.0,63,0.00,,,0.00,Wunderground v.1.13,2013-02-05 12:13:00,
2013-02-05 04:15:00,31.6,20.4,30.04,WSW,248,1.0,3.0,63,0.00,,,0.00,Wunderground v.1.13,2013-02-05 12:15:00,
2013-02-05 04:17:00,31.6,20.4,30.04,WSW,248,1.0,3.0,63,0.00,,,0.00,Wunderground v.1.13,2013-02-05 12:17:00,
2013-02-05 04:19:00,31.6,20.4,30.04,WSW,248,1.0,3.0,63,0.00,,,0.00,Wunderground v.1.13,2013-02-05 12:19:00,
2013-02-05 04:21:00,31.6,20.4,30.04,WSW,248,1.0,3.0,63,0.00,,,0.00,Wunderground v.1.13,2013-02-05 12:21:00,
2013-02-05 04:23:00,31.6,21.9,30.04,WSW,248,0.0,2.0,67,0.00,,,0.00,Wunderground v.1.13,2013-02-05 12:23:00,
2013-02-05 04:25:00,31.6,21.9,30.04,WSW,248,0.0,2.0,67,0.00,,,0.00,Wunderground v.1.13,2013-02-05 12:25:00,
2013-02-05 04:27:00,31.6,21.9,30.04,WSW,248,0.0,2.0,67,0.00,,,0.00,Wunderground v.1.13,2013-02-05 12:27:00,
2013-02-05 04:29:00,31.6,21.9,30.04,WSW,248,0.0,2.0,67,0.00,,,0.00,Wunderground v.1.13,2013-02-05 12:29:00,
2013-02-05 04:31:00,31.6,21.9,30.04,WSW,248,0.0,2.0,67,0.00,,,0.00,Wunderground v.1.13,2013-02-05 12:31:00,
2013-02-05 04:33:00,31.6,21.9,30.04,WSW,248,0.0,2.0,67,0.00,,,0.00,Wunderground v.1.13,2013-02-05 12:33:00,
2013-02-05 04:35:00,31.6,21.9,30.04,WSW,248,0.0,2.0,67,0.00,,,0.00,Wunderground v.1.13,2013-02-05 12:35:00,
2013-02-05 04:37:00,31.6,21.9,30.04,WSW,248,0.0,2.0,67,0.00,,,0.00,Wunderground v.1.13,2013-02-05 12:37:00,
2013-02-05 04:39:00,32.7,22.9,30.03,WSW,248,0.0,2.0,67,0.00,,,0.00,Wunderground v.1.13,2013-02-05 12:39:00,
2013-02-05 04:41:00,32.7,22.9,30.03,WSW,248,0.0,2.0,67,0.00,,,0.00,Wunderground v.1.13,2013-02-05 12:41:00,
2013-02-05 04:43:00,32.7,22.9,30.03,WSW,248,0.0,2.0,67,0.00,,,0.00,Wunderground v.1.13,2013-02-05 12:43:00,
2013-02-05 04:45:00,32.7,22.9,30.03,WSW,248,0.0,2.0,67,0.00,,,0.00,Wunderground v.1.13,2013-02-05 12:45:00,
2013-02-05 04:47:00,32.7,22.9,30.03,WSW,248,0.0,2.0,67,0.00,,,0.00,Wunderground v.1.13,2013-02-05 12:47:00,
2013-02-05 04:49:00,32.7,22.9,30.03,WSW,248,0.0,2.0,67,0.00,,,0.00,Wunderground v.1.13,2013-02-05 12:49:00,
2013-02-05 04:51:00,32.7,22.9,30.03,WSW,248,0.0,2.0,67,0.00,,,0.00,Wunderground v.1.13,2013-02-05 12:51:00,
2013-02-05 04:53:00,33.4,23.6,30.03,WSW,248,0.0,1.0,67,0.00,,,0.00,Wunderground v.1.13,2013-02-05 12:53:00,
2013-02-05 04:55:00,33.4,23.6,30.03,WSW,248,0.0,1.0,67,0.00,,,0.00,Wunderground v.1.13,2013-02-05 12:55:00,
2013-02-05 04:57:00,33.4,23.6,30.03,WSW,248,0.0,1.0,67,0.00,,,0.00,Wunderground v.1.13,2013-02-05 12:57:00,
2013-02-05 04:59:00,33.4,23.6,30.03,WSW,248,0.0,1.0,67,0.00,,,0.00,Wunderground v.1.13,2013-02-05 12:59:00,
2013-02-05 05:01:00,33.4,23.6,30.03,WSW,248,0.0,1.0,67,0.00,,,0.00,Wunderground v.1.13,2013-02-05 13:01:00,
2013-02-05 05:03:00,33.4,23.6,30.03,WSW,248,0.0,1.0,67,0.00,,,0.00,Wunderground v.1.13,2013-02-05 13:03:00,
2013-02-05 05:05:00,33.4,23.6,30.03,WSW,248,0.0,1.0,67,0.00,,,0.00,Wunderground v.1.13,2013-02-05 13:05:00,
2013-02-05 05:07:00,33.4,23.6,30.03,WSW,248,0.0,1.0,67,0.00,,,0.00,Wunderground v.1.13,2013-02-05 13:07:00,
2013-02-05 05:09:00,34.0,23.5,29.95,WSW,248,0.0,2.0,65,0.00,,,0.00,Wunderground v.1.13,2013-02-05 13:09:00,
2013-02-05 05:11:00,34.0,23.5,29.95,WSW,248,0.0,2.0,65,0.00,,,0.00,Wunderground v.1.13,2013-02-05 13:11:00,
2013-02-05 05:13:00,34.0,23.5,29.95,WSW,248,0.0,2.0,65,0.00,,,0.00,Wunderground v.1.13,2013-02-05 13:13:00,
2013-02-05 05:15:00,34.0,23.5,29.95,WSW,248,0.0,2.0,65,0.00,,,0.00,Wunderground v.1.13,2013-02-05 13:15:00,
2013-02-05 05:17:00,34.0,23.5,29.95,WSW,248,0.0,2.0,65,0.00,,,0.00,Wunderground v.1.13,2013-02-05 13:17:00,
2013-02-05 05:19:00,34.0,23.5,29.95,WSW,248,0.0,2.0,65,0.00,,,0.00,Wunderground v.1.13,2013-02-05 13:19:00,
2013-02-05 05:21:00,34.0,23.5,29.95,WSW,248,0.0,2.0,65,0.00,,,0.00,Wunderground v.1.13,2013-02-05 13:21:00,
2013-02-05 05:23:00,34.6,23.7,29.95,WSW,248,0.0,1.0,64,0.00,,,0.00,Wunderground v.1.13,2013-02-05 13:23:00,
2013-02-05 05:25:00,34.6,23.7,29.95,WSW,248,0.0,1.0,64,0.00,,,0.00,Wunderground v.1.13,2013-02-05 13:25:00,
2013-02-05 05:27:00,34.6,23.7,29.95,WSW,248,0.0,1.0,64,0.00,,,0.00,Wunderground v.1.13,2013-02-05 13:27:00,
2013-02-05 05:29:00,34.6,23.7,29.95,WSW,248,0.0,1.0,64,0.00,,,0.00,Wunderground v.1.13,2013-02-05 13:29:00,
2013-02-05 05:31:00,34.6,23.7,29.95,WSW,248,0.0,1.0,64,0.00,,,0.00,Wunderground v.1.13,2013-02-05 13:31:00,
2013-02-05 05:33:00,34.6,23.7,29.95,WSW,248,0.0,1.0,64,0.00,,,0.00,Wunderground v.1.13,2013-02-05 13:33:00,
2013-02-05 05:35:00,34.6,23.7,29.95,WSW,248,0.0,1.0,64,0.00,,,0.00,Wunderground v.1.13,2013-02-05 13:35:00,
2013-02-05 05:37:00,34.6,23.7,29.95,WSW,248,0.0,1.0,64,0.00,,,0.00,Wunderground v.1.13,2013-02-05 13:37:00,
2013-02-05 05:39:00,34.6,23.7,29.94,WSW,248,0.0,1.0,64,0.00,,,0.00,Wunderground v.1.13,2013-02-05 13:39:00,
2013-02-05 05:41:00,34.6,23.7,29.94,WSW,248,0.0,1.0,64,0.00,,,0.00,Wunderground v.1.13,2013-02-05 13:41:00,
2013-02-05 05:43:00,34.6,23.7,29.94,WSW,248,0.0,1.0,64,0.00,,,0.00,Wunderground v.1.13,2013-02-05 13:43:00,
2013-02-05 05:45:00,34.6,23.7,29.94,WSW,248,0.0,1.0,64,0.00,,,0.00,Wunderground v.1.13,2013-02-05 13:45:00,
2013-02-05 05:47:00,34.6,23.7,29.94,WSW,248,0.0,1.0,64,0.00,,,0.00,Wunderground v.1.13,2013-02-05 13:47:00,
2013-02-05 05:49:00,34.6,23.7,29.94,WSW,248,0.0,1.0,64,0.00,,,0.00,Wunderground v.1.13,2013-02-05 13:49:00,
2013-02-05 05:51:00,34.6,23.7,29.94,WSW,248,0.0,1.0,64,0.00,,,0.00,Wunderground v.1.13,2013-02-05 13:51:00,
2013-02-05 05:53:00,34.3,23.0,29.95,WSW,248,0.0,1.0,63,0.00,,,0.00,Wunderground v.1.13,2013-02-05 13:53:00,
2013-02-05 05:55:00,34.3,23.0,29.95,WSW,248,0.0,1.0,63,0.00,,,0.00,Wunderground v.1.13,2013-02-05 13:55:00,
2013-02-05 05:57:00,34.3,23.0,29.95,WSW,248,0.0,1.0,63,0.00,,,0.00,Wunderground v.1.13,2013-02-05 13:57:00,
2013-02-05 05:59:00,34.3,23.0,29.95,WSW,248,0.0,1.0,63,0.00,,,0.00,Wunderground v.1.13,2013-02-05 13:59:00,
2013-02-05 06:01:00,34.3,23.0,29.95,WSW,248,0.0,1.0,63,0.00,,,0.00,Wunderground v.1.13,2013-02-05 14:01:00,
2013-02-05 06:03:00,34.3,23.0,29.95,WSW,248,0.0,1.0,63,0.00,,,0.00,Wunderground v.1.13,2013-02-05 14:03:00,
2013-02-05 06:05:00,34.3,23.0,29.95,WSW,248,0.0,1.0,63,0.00,,,0.00,Wunderground v.1.13,2013-02-05 14:05:00,
2013-02-05 06:07:00,34.3,23.0,29.95,WSW,248,0.0,1.0,63,0.00,,,0.00,Wunderground v.1.13,2013-02-05 14:07:00,
2013-02-05 06:09:00,33.7,22.4,29.97,WSW,248,0.0,2.0,63,0.00,,,0.00,Wunderground v.1.13,2013-02-05 14:09:00,
2013-02-05 06:11:00,33.7,22.4,29.97,WSW,248,0.0,2.0,63,0.00,,,0.00,Wunderground v.1.13,2013-02-05 14:11:00,
2013-02-05 06:13:00,33.7,22.4,29.97,WSW,248,0.0,2.0,63,0.00,,,0.00,Wunderground v.1.13,2013-02-05 14:13:00,
2013-02-05 06:15:00,33.7,22.4,29.97,WSW,248,0.0,2.0,63,0.00,,,0.00,Wunderground v.1.13,2013-02-05 14:15:00,
2013-02-05 06:17:00,33.7,22.4,29.97,WSW,248,0.0,2.0,63,0.00,,,0.00,Wunderground v.1.13,2013-02-05 14:17:00,
2013-02-05 06:19:00,33.7,22.4,29.97,WSW,248,0.0,2.0,63,0.00,,,0.00,Wunderground v.1.13,2013-02-05 14:19:00,
2013-02-05 06:21:00,33.7,22.4,29.97,WSW,248,0.0,2.0,63,0.00,,,0.00,Wunderground v.1.13,2013-02-05 14:21:00,
2013-02-05 06:23:00,33.4,22.5,29.97,WSW,248,0.0,1.0,64,0.00,,,0.00,Wunderground v.1.13,2013-02-05 14:23:00,
2013-02-05 06:25:00,33.4,22.5,29.97,WSW,248,0.0,1.0,64,0.00,,,0.00,Wunderground v.1.13,2013-02-05 14:25:00,
2013-02-05 06:27:00,33.4,22.5,29.97,WSW,248,0.0,1.0,64,0.00,,,0.00,Wunderground v.1.13,2013-02-05 14:27:00,
2013-02-05 06:29:00,33.4,22.5,29.97,WSW,248,0.0,1.0,64,0.00,,,0.00,Wunderground v.1.13,2013-02-05 14:29:00,
2013-02-05 06:31:00,33.4,22.5,29.97,WSW,248,0.0,1.0,64,0.00,,,0.00,Wunderground v.1.13,2013-02-05 14:31:00,
2013-02-05 06:33:00,33.4,22.5,29.97,WSW,248,0.0,1.0,64,0.00,,,0.00,Wunderground v.1.13,2013-02-05 14:33:00,
2013-02-05 06:35:00,33.4,22.5,29.97,WSW,248,0.0,1.0,64,0.00,,,0.00,Wunderground v.1.13,2013-02-05 14:35:00,
2013-02-05 06:37:00,33.4,22.5,29.97,WSW,248,0.0,1.0,64,0.00,,,0.00,Wunderground v.1.13,2013-02-05 14:37:00,
2013-02-05 06:39:00,32.9,22.4,29.98,WSW,248,0.0,2.0,65,0.00,,,0.00,Wunderground v.1.13,2013-02-05 14:39:00,
2013-02-05 06:41:00,32.9,22.4,29.98,WSW,248,0.0,2.0,65,0.00,,,0.00,Wunderground v.1.13,2013-02-05 14:41:00,
2013-02-05 06:43:00,32.9,22.4,29.98,WSW,248,0.0,2.0,65,0.00,,,0.00,Wunderground v.1.13,2013-02-05 14:43:00,
2013-02-05 06:45:00,32.9,22.4,29.98,WSW,248,0.0,2.0,65,0.00,,,0.00,Wunderground v.1.13,2013-02-05 14:45:00,
2013-02-05 06:47:00,32.9,22.4,29.98,WSW,248,0.0,2.0,65,0.00,,,0.00,Wunderground v.1.13,2013-02-05 14:47:00,
2013-02-05 06:49:00,32.9,22.4,29.98,WSW,248,0.0,2.0,65,0.00,,,0.00,Wunderground v.1.13,2013-02-05 14:49:00,
2013-02-05 06:51:00,32.9,22.4,29.98,WSW,248,0.0,2.0,65,0.00,,,0.00,Wunderground v.1.13,2013-02-05 14:51:00,
2013-02-05 06:53:00,30.7,20.3,29.99,WSW,248,0.0,2.0,65,0.00,,,0.00,Wunderground v.1.13,2013-02-05 14:53:00,
2013-02-05 06:55:00,30.7,20.3,29.99,WSW,248,0.0,2.0,65,0.00,,,0.00,Wunderground v.1.13,2013-02-05 14:55:00,
2013-02-05 06:57:00,30.7,20.3,29.99,WSW,248,0.0,2.0,65,0.00,,,0.00,Wunderground v.1.13,2013-02-05 14:57:00,
2013-02-05 06:59:00,30.7,20.3,29.99,WSW,248,0.0,2.0,65,0.00,,,0.00,Wunderground v.1.13,2013-02-05 14:59:00,
2013-02-05 07:01:00,30.7,20.3,29.99,WSW,248,0.0,2.0,65,0.00,,,0.00,Wunderground v.1.13,2013-02-05 15:01:00,
2013-02-05 07:03:00,30.7,20.3,29.99,WSW,248,0.0,2.0,65,0.00,,,0.00,Wunderground v.1.13,2013-02-05 15:03:00,
2013-02-05 07:05:00,30.7,20.3,29.99,WSW,248,0.0,2.0,65,0.00,,,0.00,Wunderground v.1.13,2013-02-05 15:05:00,
2013-02-05 07:07:00,30.7,20.3,29.99,WSW,248,0.0,2.0,65,0.00,,,0.00,Wunderground v.1.13,2013-02-05 15:07:00,
2013-02-05 07:09:00,30.6,20.9,30.00,N/A,-737280,0.0,0.0,67,0.00,,,0.00,Wunderground v.1.13,2013-02-05 15:09:00,
2013-02-05 07:11:00,30.6,20.9,30.00,N/A,-737280,0.0,0.0,67,0.00,,,0.00,Wunderground v.1.13,2013-02-05 15:11:00,
2013-02-05 07:13:00,30.6,20.9,30.00,N/A,-737280,0.0,0.0,67,0.00,,,0.00,Wunderground v.1.13,2013-02-05 15:13:00,
2013-02-05 07:15:00,30.6,20.9,30.00,N/A,-737280,0.0,0.0,67,0.00,,,0.00,Wunderground v.1.13,2013-02-05 15:15:00,
2013-02-05 07:17:00,30.6,20.9,30.00,N/A,-737280,0.0,0.0,67,0.00,,,0.00,Wunderground v.1.13,2013-02-05 15:17:00,
2013-02-05 07:19:00,30.6,20.9,30.00,N/A,-737280,0.0,0.0,67,0.00,,,0.00,Wunderground v.1.13,2013-02-05 15:19:00,
2013-02-05 07:21:00,30.6,20.9,30.00,N/A,-737280,0.0,0.0,67,0.00,,,0.00,Wunderground v.1.13,2013-02-05 15:21:00,
2013-02-05 07:23:00,31.6,22.2,30.00,N/A,-737280,0.0,0.0,68,0.00,,,0.00,Wunderground v.1.13,2013-02-05 15:23:00,
2013-02-05 07:25:00,31.6,22.2,30.00,N/A,-737280,0.0,0.0,68,0.00,,,0.00,Wunderground v.1.13,2013-02-05 15:25:00,
2013-02-05 07:27:00,31.6,22.2,30.00,N/A,-737280,0.0,0.0,68,0.00,,,0.00,Wunderground v.1.13,2013-02-05 15:27:00,
2013-02-05 07:29:00,31.6,22.2,30.00,N/A,-737280,0.0,0.0,68,0.00,,,0.00,Wunderground v.1.13,2013-02-05 15:29:00,
2013-02-05 07:31:00,31.6,22.2,30.00,N/A,-737280,0.0,0.0,68,0.00,,,0.00,Wunderground v.1.13,2013-02-05 15:31:00,
2013-02-05 07:33:00,31.6,22.2,30.00,N/A,-737280,0.0,0.0,68,0.00,,,0.00,Wunderground v.1.13,2013-02-05 15:33:00,
2013-02-05 07:35:00,31.6,22.2,30.00,N/A,-737280,0.0,0.0,68,0.00,,,0.00,Wunderground v.1.13,2013-02-05 15:35:00,
2013-02-05 07:37:00,31.6,22.2,30.00,N/A,-737280,0.0,0.0,68,0.00,,,0.00,Wunderground v.1.13,2013-02-05 15:37:00,
2013-02-05 07:39:00,34.3,23.7,30.00,WSW,248,0.0,1.0,65,0.00,,,0.00,Wunderground v.1.13,2013-02-05 15:39:00,
2013-02-05 07:41:00,34.3,23.7,30.00,WSW,248,0.0,1.0,65,0.00,,,0.00,Wunderground v.1.13,2013-02-05 15:41:00,
2013-02-05 07:43:00,34.3,23.7,30.00,WSW,248,0.0,1.0,65,0.00,,,0.00,Wunderground v.1.13,2013-02-05 15:43:00,
2013-02-05 07:45:00,34.3,23.7,30.00,WSW,248,0.0,1.0,65,0.00,,,0.00,Wunderground v.1.13,2013-02-05 15:45:00,
2013-02-05 07:47:00,34.3,23.7,30.00,WSW,248,0.0,1.0,65,0.00,,,0.00,Wunderground v.1.13,2013-02-05 15:47:00,
2013-02-05 07:49:00,34.3,23.7,30.00,WSW,248,0.0,1.0,65,0.00,,,0.00,Wunderground v.1.13,2013-02-05 15:49:00,
2013-02-05 07:51:00,34.3,23.7,30.00,WSW,248,0.0,1.0,65,0.00,,,0.00,Wunderground v.1.13,2013-02-05 15:51:00,
2013-02-05 07:53:00,38.9,23.7,29.99,WSW,248,0.0,1.0,54,0.00,,,0.00,Wunderground v.1.13,2013-02-05 15:53:00,
2013-02-05 07:55:00,38.9,23.7,29.99,WSW,248,0.0,1.0,54,0.00,,,0.00,Wunderground v.1.13,2013-02-05 15:55:00,
2013-02-05 07:57:00,38.9,23.7,29.99,WSW,248,0.0,1.0,54,0.00,,,0.00,Wunderground v.1.13,2013-02-05 15:57:00,
2013-02-05 07:59:00,38.9,23.7,29.99,WSW,248,0.0,1.0,54,0.00,,,0.00,Wunderground v.1.13,2013-02-05 15:59:00,
2013-02-05 08:01:00,38.9,23.7,29.99,WSW,248,0.0,1.0,54,0.00,,,0.00,Wunderground v.1.13,2013-02-05 16:01:00,
2013-02-05 08:03:00,38.9,23.7,29.99,WSW,248,0.0,1.0,54,0.00,,,0.00,Wunderground v.1.13,2013-02-05 16:03:00,
2013-02-05 08:05:00,38.9,23.7,29.99,WSW,248,0.0,1.0,54,0.00,,,0.00,Wunderground v.1.13,2013-02-05 16:05:00,
2013-02-05 08:07:00,38.9,23.7,29.99,WSW,248,0.0,1.0,54,0.00,,,0.00,Wunderground v.1.13,2013-02-05 16:07:00,
2013-02-05 08:09:00,42.3,24.0,29.99,WSW,248,0.0,2.0,48,0.00,,,0.00,Wunderground v.1.13,2013-02-05 16:09:00,
2013-02-05 08:11:00,42.3,24.0,29.99,WSW,248,0.0,2.0,48,0.00,,,0.00,Wunderground v.1.13,2013-02-05 16:11:00,
2013-02-05 08:13:00,42.3,24.0,29.99,WSW,248,0.0,2.0,48,0.00,,,0.00,Wunderground v.1.13,2013-02-05 16:13:00,
2013-02-05 08:15:00,42.3,24.0,29.99,WSW,248,0.0,2.0,48,0.00,,,0.00,Wunderground v.1.13,2013-02-05 16:15:00,
2013-02-05 08:17:00,42.3,24.0,29.99,WSW,248,0.0,2.0,48,0.00,,,0.00,Wunderground v.1.13,2013-02-05 16:17:00,
2013-02-05 08:19:00,42.3,24.0,29.99,WSW,248,0.0,2.0,48,0.00,,,0.00,Wunderground v.1.13,2013-02-05 16:19:00,
2013-02-05 08:21:00,42.3,24.0,29.99,WSW,248,0.0,2.0,48,0.00,,,0.00,Wunderground v.1.13,2013-02-05 16:21:00,
2013-02-05 08:23:00,45.5,24.3,29.99,WSW,248,0.0,1.0,43,0.00,,,0.00,Wunderground v.1.13,2013-02-05 16:23:00,
2013-02-05 08:25:00,45.5,24.3,29.99,WSW,248,0.0,1.0,43,0.00,,,0.00,Wunderground v.1.13,2013-02-05 16:25:00,
2013-02-05 08:27:00,45.5,24.3,29.99,WSW,248,0.0,1.0,43,0.00,,,0.00,Wunderground v.1.13,2013-02-05 16:27:00,
2013-02-05 08:29:00,45.5,24.3,29.99,WSW,248,0.0,1.0,43,0.00,,,0.00,Wunderground v.1.13,2013-02-05 16:29:00,
2013-02-05 08:31:00,45.5,24.3,29.99,WSW,248,0.0,1.0,43,0.00,,,0.00,Wunderground v.1.13,2013-02-05 16:31:00,
2013-02-05 08:33:00,45.5,24.3,29.99,WSW,248,0.0,1.0,43,0.00,,,0.00,Wunderground v.1.13,2013-02-05 16:33:00,
2013-02-05 08:35:00,45.5,24.3,29.99,WSW,248,0.0,1.0,43,0.00,,,0.00,Wunderground v.1.13,2013-02-05 16:35:00,
2013-02-05 08:37:00,45.5,24.3,29.99,WSW,248,0.0,1.0,43,0.00,,,0.00,Wunderground v.1.13,2013-02-05 16:37:00,
2013-02-05 08:39:00,48.0,24.8,29.99,WSW,248,0.0,1.0,40,0.00,,,0.00,Wunderground v.1.13,2013-02-05 16:39:00,
2013-02-05 08:41:00,48.0,24.8,29.99,WSW,248,0.0,1.0,40,0.00,,,0.00,Wunderground v.1.13,2013-02-05 16:41:00,
2013-02-05 08:43:00,48.0,24.8,29.99,WSW,248,0.0,1.0,40,0.00,,,0.00,Wunderground v.1.13,2013-02-05 16:43:00,
2013-02-05 08:45:00,48.0,24.8,29.99,WSW,248,0.0,1.0,40,0.00,,,0.00,Wunderground v.1.13,2013-02-05 16:45:00,
2013-02-05 08:47:00,48.0,24.8,29.99,WSW,248,0.0,1.0,40,0.00,,,0.00,Wunderground v.1.13,2013-02-05 16:47:00,
2013-02-05 08:49:00,48.0,24.8,29.99,WSW,248,0.0,1.0,40,0.00,,,0.00,Wunderground v.1.13,2013-02-05 16:49:00,
2013-02-05 08:51:00,48.0,24.8,29.99,WSW,248,0.0,1.0,40,0.00,,,0.00,Wunderground v.1.13,2013-02-05 16:51:00,
2013-02-05 08:53:00,49.9,24.6,29.98,WSW,248,0.0,2.0,37,0.00,,,0.00,Wunderground v.1.13,2013-02-05 16:53:00,
2013-02-05 08:55:00,49.9,24.6,29.98,WSW,248,0.0,2.0,37,0.00,,,0.00,Wunderground v.1.13,2013-02-05 16:55:00,
2013-02-05 08:57:00,49.9,24.6,29.98,WSW,248,0.0,2.0,37,0.00,,,0.00,Wunderground v.1.13,2013-02-05 16:57:00,
2013-02-05 08:59:00,49.9,24.6,29.98,WSW,248,0.0,2.0,37,0.00,,,0.00,Wunderground v.1.13,2013-02-05 16:59:00,
2013-02-05 09:01:00,49.9,24.6,29.98,WSW,248,0.0,2.0,37,0.00,,,0.00,Wunderground v.1.13,2013-02-05 17:01:00,
2013-02-05 09:03:00,49.9,24.6,29.98,WSW,248,0.0,2.0,37,0.00,,,0.00,Wunderground v.1.13,2013-02-05 17:03:00,
2013-02-05 09:05:00,49.9,24.6,29.98,WSW,248,0.0,2.0,37,0.00,,,0.00,Wunderground v.1.13,2013-02-05 17:05:00,
2013-02-05 09:07:00,49.9,24.6,29.98,WSW,248,0.0,2.0,37,0.00,,,0.00,Wunderground v.1.13,2013-02-05 17:07:00,
2013-02-05 09:09:00,52.6,25.0,29.98,WSW,248,0.0,1.0,34,0.00,,,0.00,Wunderground v.1.13,2013-02-05 17:09:00,
2013-02-05 09:11:00,52.6,25.0,29.98,WSW,248,0.0,1.0,34,0.00,,,0.00,Wunderground v.1.13,2013-02-05 17:11:00,
2013-02-05 09:13:00,52.6,25.0,29.98,WSW,248,0.0,1.0,34,0.00,,,0.00,Wunderground v.1.13,2013-02-05 17:13:00,
2013-02-05 09:15:00,52.6,25.0,29.98,WSW,248,0.0,1.0,34,0.00,,,0.00,Wunderground v.1.13,2013-02-05 17:15:00,
2013-02-05 09:17:00,52.6,25.0,29.98,WSW,248,0.0,1.0,34,0.00,,,0.00,Wunderground v.1.13,2013-02-05 17:17:00,
2013-02-05 09:19:00,52.6,25.0,29.98,WSW,248,0.0,1.0,34,0.00,,,0.00,Wunderground v.1.13,2013-02-05 17:19:00,
2013-02-05 09:21:00,52.6,25.0,29.98,WSW,248,0.0,1.0,34,0.00,,,0.00,Wunderground v.1.13,2013-02-05 17:21:00,
2013-02-05 09:23:00,53.9,24.7,29.98,WSW,248,0.0,2.0,32,0.00,,,0.00,Wunderground v.1.13,2013-02-05 17:23:00,
2013-02-05 09:25:00,53.9,24.7,29.98,WSW,248,0.0,2.0,32,0.00,,,0.00,Wunderground v.1.13,2013-02-05 17:25:00,
2013-02-05 09:27:00,53.9,24.7,29.98,WSW,248,0.0,2.0,32,0.00,,,0.00,Wunderground v.1.13,2013-02-05 17:27:00,
2013-02-05 09:29:00,53.9,24.7,29.98,WSW,248,0.0,2.0,32,0.00,,,0.00,Wunderground v.1.13,2013-02-05 17:29:00,
2013-02-05 09:31:00,53.9,24.7,29.98,WSW,248,0.0,2.0,32,0.00,,,0.00,Wunderground v.1.13,2013-02-05 17:31:00,
2013-02-05 09:33:00,53.9,24.7,29.98,WSW,248,0.0,2.0,32,0.00,,,0.00,Wunderground v.1.13,2013-02-05 17:33:00,
2013-02-05 09:35:00,53.9,24.7,29.98,WSW,248,0.0,2.0,32,0.00,,,0.00,Wunderground v.1.13,2013-02-05 17:35:00,
2013-02-05 09:37:00,53.9,24.7,29.98,WSW,248,0.0,2.0,32,0.00,,,0.00,Wunderground v.1.13,2013-02-05 17:37:00,
2013-02-05 09:39:00,56.9,24.9,29.97,WSW,248,0.0,1.0,29,0.00,,,0.00,Wunderground v.1.13,2013-02-05 17:39:00,
2013-02-05 09:41:00,56.9,24.9,29.97,WSW,248,0.0,1.0,29,0.00,,,0.00,Wunderground v.1.13,2013-02-05 17:41:00,
2013-02-05 09:43:00,56.9,24.9,29.97,WSW,248,0.0,1.0,29,0.00,,,0.00,Wunderground v.1.13,2013-02-05 17:43:00,
2013-02-05 09:45:00,56.9,24.9,29.97,WSW,248,0.0,1.0,29,0.00,,,0.00,Wunderground v.1.13,2013-02-05 17:45:00,
2013-02-05 09:47:00,56.9,24.9,29.97,WSW,248,0.0,1.0,29,0.00,,,0.00,Wunderground v.1.13,2013-02-05 17:47:00,
2013-02-05 09:49:00,56.9,24.9,29.97,WSW,248,0.0,1.0,29,0.00,,,0.00,Wunderground v.1.13,2013-02-05 17:49:00,
2013-02-05 09:51:00,56.9,24.9,29.97,WSW,248,0.0,1.0,29,0.00,,,0.00,Wunderground v.1.13,2013-02-05 17:51:00,
2013-02-05 09:53:00,59.3,26.2,29.96,WSW,248,0.0,1.0,28,0.00,,,0.00,Wunderground v.1.13,2013-02-05 17:53:00,
2013-02-05 09:55:00,59.3,26.2,29.96,WSW,248,0.0,1.0,28,0.00,,,0.00,Wunderground v.1.13,2013-02-05 17:55:00,
2013-02-05 09:57:00,59.3,26.2,29.96,WSW,248,0.0,1.0,28,0.00,,,0.00,Wunderground v.1.13,2013-02-05 17:57:00,
2013-02-05 09:59:00,59.3,26.2,29.96,WSW,248,0.0,1.0,28,0.00,,,0.00,Wunderground v.1.13,2013-02-05 17:59:00,
2013-02-05 10:01:00,59.3,26.2,29.96,WSW,248,0.0,1.0,28,0.00,,,0.00,Wunderground v.1.13,2013-02-05 18:01:00,
2013-02-05 10:03:00,59.3,26.2,29.96,WSW,248,0.0,1.0,28,0.00,,,0.00,Wunderground v.1.13,2013-02-05 18:03:00,
2013-02-05 10:05:00,59.3,26.2,29.96,WSW,248,0.0,1.0,28,0.00,,,0.00,Wunderground v.1.13,2013-02-05 18:05:00,
2013-02-05 10:07:00,59.3,26.2,29.96,WSW,248,0.0,1.0,28,0.00,,,0.00,Wunderground v.1.13,2013-02-05 18:07:00,
2013-02-05 10:09:00,61.3,25.1,29.96,WSW,248,0.0,2.0,25,0.00,,,0.00,Wunderground v.1.13,2013-02-05 18:09:00,
2013-02-05 10:11:00,61.3,25.1,29.96,WSW,248,0.0,2.0,25,0.00,,,0.00,Wunderground v.1.13,2013-02-05 18:11:00,
2013-02-05 10:13:00,61.3,25.1,29.96,WSW,248,0.0,2.0,25,0.00,,,0.00,Wunderground v.1.13,2013-02-05 18:13:00,
2013-02-05 10:15:00,61.3,25.1,29.96,WSW,248,0.0,2.0,25,0.00,,,0.00,Wunderground v.1.13,2013-02-05 18:15:00,
2013-02-05 10:17:00,61.3,25.1,29.96,WSW,248,0.0,2.0,25,0.00,,,0.00,Wunderground v.1.13,2013-02-05 18:17:00,
2013-02-05 10:19:00,61.3,25.1,29.96,WSW,248,0.0,2.0,25,0.00,,,0.00,Wunderground v.1.13,2013-02-05 18:19:00,
2013-02-05 10:21:00,61.3,25.1,29.96,WSW,248,0.0,2.0,25,0.00,,,0.00,Wunderground v.1.13,2013-02-05 18:21:00,
2013-02-05 10:23:00,62.1,25.8,29.95,SE,135,1.0,5.0,25,0.00,,,0.00,Wunderground v.1.13,2013-02-05 18:23:00,
2013-02-05 10:25:00,62.1,25.8,29.95,SE,135,1.0,5.0,25,0.00,,,0.00,Wunderground v.1.13,2013-02-05 18:25:00,
2013-02-05 10:27:00,62.1,25.8,29.95,SE,135,1.0,5.0,25,0.00,,,0.00,Wunderground v.1.13,2013-02-05 18:27:00,
2013-02-05 10:29:00,62.1,25.8,29.95,SE,135,1.0,5.0,25,0.00,,,0.00,Wunderground v.1.13,2013-02-05 18:29:00,
2013-02-05 10:31:00,62.1,25.8,29.95,SE,135,1.0,5.0,25,0.00,,,0.00,Wunderground v.1.13,2013-02-05 18:31:00,
2013-02-05 10:33:00,62.1,25.8,29.95,SE,135,1.0,5.0,25,0.00,,,0.00,Wunderground v.1.13,2013-02-05 18:33:00,
2013-02-05 10:35:00,62.1,25.8,29.95,SE,135,1.0,5.0,25,0.00,,,0.00,Wunderground v.1.13,2013-02-05 18:35:00,
2013-02-05 10:37:00,62.1,25.8,29.95,SE,135,1.0,5.0,25,0.00,,,0.00,Wunderground v.1.13,2013-02-05 18:37:00,
2013-02-05 10:39:00,64.0,24.4,29.93,SE,135,1.0,3.0,22,0.00,,,0.00,Wunderground v.1.13,2013-02-05 18:39:00,
2013-02-05 10:41:00,64.0,24.4,29.93,SE,135,1.0,3.0,22,0.00,,,0.00,Wunderground v.1.13,2013-02-05 18:41:00,
2013-02-05 10:43:00,64.0,24.4,29.93,SE,135,1.0,3.0,22,0.00,,,0.00,Wunderground v.1.13,2013-02-05 18:43:00,
2013-02-05 10:45:00,64.0,24.4,29.93,SE,135,1.0,3.0,22,0.00,,,0.00,Wunderground v.1.13,2013-02-05 18:45:00,
2013-02-05 10:47:00,64.0,24.4,29.93,SE,135,1.0,3.0,22,0.00,,,0.00,Wunderground v.1.13,2013-02-05 18:47:00,
2013-02-05 10:49:00,64.0,24.4,29.93,SE,135,1.0,3.0,22,0.00,,,0.00,Wunderground v.1.13,2013-02-05 18:49:00,
2013-02-05 10:51:00,64.0,24.4,29.93,SE,135,1.0,3.0,22,0.00,,,0.00,Wunderground v.1.13,2013-02-05 18:51:00,
2013-02-05 10:53:00,66.1,25.0,29.92,SE,135,0.0,3.0,21,0.00,,,0.00,Wunderground v.1.13,2013-02-05 18:53:00,
2013-02-05 10:55:00,66.1,25.0,29.92,SE,135,0.0,3.0,21,0.00,,,0.00,Wunderground v.1.13,2013-02-05 18:55:00,
2013-02-05 10:57:00,66.1,25.0,29.92,SE,135,0.0,3.0,21,0.00,,,0.00,Wunderground v.1.13,2013-02-05 18:57:00,
2013-02-05 10:59:00,66.1,25.0,29.92,SE,135,0.0,3.0,21,0.00,,,0.00,Wunderground v.1.13,2013-02-05 18:59:00,
2013-02-05 11:01:00,66.1,25.0,29.92,SE,135,0.0,3.0,21,0.00,,,0.00,Wunderground v.1.13,2013-02-05 19:01:00,
2013-02-05 11:03:00,66.1,25.0,29.92,SE,135,0.0,3.0,21,0.00,,,0.00,Wunderground v.1.13,2013-02-05 19:03:00,
2013-02-05 11:05:00,66.1,25.0,29.92,SE,135,0.0,3.0,21,0.00,,,0.00,Wunderground v.1.13,2013-02-05 19:05:00,
2013-02-05 11:07:00,66.1,25.0,29.92,SE,135,0.0,3.0,21,0.00,,,0.00,Wunderground v.1.13,2013-02-05 19:07:00,
2013-02-05 11:09:00,66.9,25.7,29.92,ESE,113,1.0,3.0,21,0.00,,,0.00,Wunderground v.1.13,2013-02-05 19:09:00,
2013-02-05 11:11:00,66.9,25.7,29.92,ESE,113,1.0,3.0,21,0.00,,,0.00,Wunderground v.1.13,2013-02-05 19:11:00,
2013-02-05 11:13:00,66.9,25.7,29.92,ESE,113,1.0,3.0,21,0.00,,,0.00,Wunderground v.1.13,2013-02-05 19:13:00,
2013-02-05 11:15:00,66.9,25.7,29.92,ESE,113,1.0,3.0,21,0.00,,,0.00,Wunderground v.1.13,2013-02-05 19:15:00,
2013-02-05 11:17:00,66.9,25.7,29.92,ESE,113,1.0,3.0,21,0.00,,,0.00,Wunderground v.1.13,2013-02-05 19:17:00,
2013-02-05 11:19:00,66.9,25.7,29.92,ESE,113,1.0,3.0,21,0.00,,,0.00,Wunderground v.1.13,2013-02-05 19:19:00,
2013-02-05 11:21:00,66.9,25.7,29.92,ESE,113,1.0,3.0,21,0.00,,,0.00,Wunderground v.1.13,2013-02-05 19:21:00,
2013-02-05 11:23:00,68.3,24.4,29.91,ESE,113,1.0,2.0,19,0.00,,,0.00,Wunderground v.1.13,2013-02-05 19:23:00,
2013-02-05 11:25:00,68.3,24.4,29.91,ESE,113,1.0,2.0,19,0.00,,,0.00,Wunderground v.1.13,2013-02-05 19:25:00,
2013-02-05 11:27:00,68.3,24.4,29.91,ESE,113,1.0,2.0,19,0.00,,,0.00,Wunderground v.1.13,2013-02-05 19:27:00,
2013-02-05 11:29:00,68.3,24.4,29.91,ESE,113,1.0,2.0,19,0.00,,,0.00,Wunderground v.1.13,2013-02-05 19:29:00,
2013-02-05 11:31:00,68.3,24.4,29.91,ESE,113,1.0,2.0,19,0.00,,,0.00,Wunderground v.1.13,2013-02-05 19:31:00,
2013-02-05 11:33:00,68.3,24.4,29.91,ESE,113,1.0,2.0,19,0.00,,,0.00,Wunderground v.1.13,2013-02-05 19:33:00,
2013-02-05 11:35:00,68.3,24.4,29.91,ESE,113,1.0,2.0,19,0.00,,,0.00,Wunderground v.1.13,2013-02-05 19:35:00,
2013-02-05 11:37:00,68.3,24.4,29.91,ESE,113,1.0,2.0,19,0.00,,,0.00,Wunderground v.1.13,2013-02-05 19:37:00,
2013-02-05 11:39:00,70.1,25.9,29.89,ESE,113,1.0,5.0,19,0.00,,,0.00,Wunderground v.1.13,2013-02-05 19:39:00,
2013-02-05 11:41:00,70.1,25.9,29.89,ESE,113,1.0,5.0,19,0.00,,,0.00,Wunderground v.1.13,2013-02-05 19:41:00,
2013-02-05 11:43:00,70.1,25.9,29.89,ESE,113,1.0,5.0,19,0.00,,,0.00,Wunderground v.1.13,2013-02-05 19:43:00,
2013-02-05 11:45:00,70.1,25.9,29.89,ESE,113,1.0,5.0,19,0.00,,,0.00,Wunderground v.1.13,2013-02-05 19:45:00,
2013-02-05 11:47:00,70.1,25.9,29.89,ESE,113,1.0,5.0,19,0.00,,,0.00,Wunderground v.1.13,2013-02-05 19:47:00,
2013-02-05 11:49:00,70.1,25.9,29.89,ESE,113,1.0,5.0,19,0.00,,,0.00,Wunderground v.1.13,2013-02-05 19:49:00,
2013-02-05 11:51:00,70.1,25.9,29.89,ESE,113,1.0,5.0,19,0.00,,,0.00,Wunderground v.1.13,2013-02-05 19:51:00,
2013-02-05 11:53:00,70.6,26.3,29.88,SE,135,1.0,4.0,19,0.00,,,0.00,Wunderground v.1.13,2013-02-05 19:53:00,
2013-02-05 11:55:00,70.6,26.3,29.88,SE,135,1.0,4.0,19,0.00,,,0.00,Wunderground v.1.13,2013-02-05 19:55:00,
2013-02-05 11:57:00,70.6,26.3,29.88,SE,135,1.0,4.0,19,0.00,,,0.00,Wunderground v.1.13,2013-02-05 19:57:00,
2013-02-05 11:59:00,70.6,26.3,29.88,SE,135,1.0,4.0,19,0.00,,,0.00,Wunderground v.1.13,2013-02-05 19:59:00,
2013-02-05 12:01:00,70.6,26.3,29.88,SE,135,1.0,4.0,19,0.00,,,0.00,Wunderground v.1.13,2013-02-05 20:01:00,
2013-02-05 12:03:00,70.6,26.3,29.88,SE,135,1.0,4.0,19,0.00,,,0.00,Wunderground v.1.13,2013-02-05 20:03:00,
2013-02-05 12:05:00,70.6,26.3,29.88,SE,135,1.0,4.0,19,0.00,,,0.00,Wunderground v.1.13,2013-02-05 20:05:00,
2013-02-05 12:07:00,70.6,26.3,29.88,SE,135,1.0,4.0,19,0.00,,,0.00,Wunderground v.1.13,2013-02-05 20:07:00,
2013-02-05 12:09:00,70.8,25.2,29.87,East,90,1.0,6.0,18,0.00,,,0.00,Wunderground v.1.13,2013-02-05 20:09:00,
2013-02-05 12:11:00,70.8,25.2,29.87,East,90,1.0,6.0,18,0.00,,,0.00,Wunderground v.1.13,2013-02-05 20:11:00,
2013-02-05 12:13:00,70.8,25.2,29.87,East,90,1.0,6.0,18,0.00,,,0.00,Wunderground v.1.13,2013-02-05 20:13:00,
2013-02-05 12:15:00,70.8,25.2,29.87,East,90,1.0,6.0,18,0.00,,,0.00,Wunderground v.1.13,2013-02-05 20:15:00,
2013-02-05 12:17:00,70.8,25.2,29.87,East,90,1.0,6.0,18,0.00,,,0.00,Wunderground v.1.13,2013-02-05 20:17:00,
2013-02-05 12:19:00,70.8,25.2,29.87,East,90,1.0,6.0,18,0.00,,,0.00,Wunderground v.1.13,2013-02-05 20:19:00,
2013-02-05 12:21:00,70.8,25.2,29.87,East,90,1.0,6.0,18,0.00,,,0.00,Wunderground v.1.13,2013-02-05 20:21:00,
2013-02-05 12:23:00,71.8,24.6,29.85,East,90,1.0,6.0,17,0.00,,,0.00,Wunderground v.1.13,2013-02-05 20:23:00,
2013-02-05 12:25:00,71.8,24.6,29.85,East,90,1.0,6.0,17,0.00,,,0.00,Wunderground v.1.13,2013-02-05 20:25:00,
2013-02-05 12:27:00,71.8,24.6,29.85,East,90,1.0,6.0,17,0.00,,,0.00,Wunderground v.1.13,2013-02-05 20:27:00,
2013-02-05 12:29:00,71.8,24.6,29.85,East,90,1.0,6.0,17,0.00,,,0.00,Wunderground v.1.13,2013-02-05 20:29:00,
2013-02-05 12:31:00,71.8,24.6,29.85,East,90,1.0,6.0,17,0.00,,,0.00,Wunderground v.1.13,2013-02-05 20:31:00,
2013-02-05 12:33:00,71.8,24.6,29.85,East,90,1.0,6.0,17,0.00,,,0.00,Wunderground v.1.13,2013-02-05 20:33:00,
2013-02-05 12:35:00,71.8,24.6,29.85,East,90,1.0,6.0,17,0.00,,,0.00,Wunderground v.1.13,2013-02-05 20:35:00,
2013-02-05 12:37:00,71.8,24.6,29.85,East,90,1.0,6.0,17,0.00,,,0.00,Wunderground v.1.13,2013-02-05 20:37:00,
2013-02-05 12:39:00,72.5,23.7,29.84,SE,135,2.0,5.0,16,0.00,,,0.00,Wunderground v.1.13,2013-02-05 20:39:00,
2013-02-05 12:41:00,72.5,23.7,29.84,SE,135,2.0,5.0,16,0.00,,,0.00,Wunderground v.1.13,2013-02-05 20:41:00,
2013-02-05 12:43:00,72.5,23.7,29.84,SE,135,2.0,5.0,16,0.00,,,0.00,Wunderground v.1.13,2013-02-05 20:43:00,
2013-02-05 12:45:00,72.5,23.7,29.84,SE,135,2.0,5.0,16,0.00,,,0.00,Wunderground v.1.13,2013-02-05 20:45:00,
2013-02-05 12:47:00,72.5,23.7,29.84,SE,135,2.0,5.0,16,0.00,,,0.00,Wunderground v.1.13,2013-02-05 20:47:00,
2013-02-05 12:49:00,72.5,23.7,29.84,SE,135,2.0,5.0,16,0.00,,,0.00,Wunderground v.1.13,2013-02-05 20:49:00,
2013-02-05 12:51:00,72.5,23.7,29.84,SE,135,2.0,5.0,16,0.00,,,0.00,Wunderground v.1.13,2013-02-05 20:51:00,
2013-02-05 12:53:00,73.2,25.7,29.83,SE,135,2.0,7.0,17,0.00,,,0.00,Wunderground v.1.13,2013-02-05 20:53:00,
2013-02-05 12:55:00,73.2,25.7,29.83,SE,135,2.0,7.0,17,0.00,,,0.00,Wunderground v.1.13,2013-02-05 20:55:00,
2013-02-05 12:57:00,73.2,25.7,29.83,SE,135,2.0,7.0,17,0.00,,,0.00,Wunderground v.1.13,2013-02-05 20:57:00,
2013-02-05 12:59:00,73.2,25.7,29.83,SE,135,2.0,7.0,17,0.00,,,0.00,Wunderground v.1.13,2013-02-05 20:59:00,
2013-02-05 13:01:00,73.2,25.7,29.83,SE,135,2.0,7.0,17,0.00,,,0.00,Wunderground v.1.13,2013-02-05 21:01:00,
2013-02-05 13:03:00,73.2,25.7,29.83,SE,135,2.0,7.0,17,0.00,,,0.00,Wunderground v.1.13,2013-02-05 21:03:00,
2013-02-05 13:05:00,73.2,25.7,29.83,SE,135,2.0,7.0,17,0.00,,,0.00,Wunderground v.1.13,2013-02-05 21:05:00,
2013-02-05 13:07:00,73.2,25.7,29.83,SE,135,2.0,7.0,17,0.00,,,0.00,Wunderground v.1.13,2013-02-05 21:07:00,
2013-02-05 13:09:00,74.6,26.9,29.83,SSE,158,3.0,13.0,17,0.00,,,0.00,Wunderground v.1.13,2013-02-05 21:09:00,
2013-02-05 13:11:00,74.6,26.9,29.83,SSE,158,3.0,13.0,17,0.00,,,0.00,Wunderground v.1.13,2013-02-05 21:11:00,
2013-02-05 13:13:00,74.6,26.9,29.83,SSE,158,3.0,13.0,17,0.00,,,0.00,Wunderground v.1.13,2013-02-05 21:13:00,
2013-02-05 13:15:00,74.6,26.9,29.83,SSE,158,3.0,13.0,17,0.00,,,0.00,Wunderground v.1.13,2013-02-05 21:15:00,
2013-02-05 13:17:00,74.6,26.9,29.83,SSE,158,3.0,13.0,17,0.00,,,0.00,Wunderground v.1.13,2013-02-05 21:17:00,
2013-02-05 13:19:00,74.6,26.9,29.83,SSE,158,3.0,13.0,17,0.00,,,0.00,Wunderground v.1.13,2013-02-05 21:19:00,
2013-02-05 13:21:00,74.6,26.9,29.83,SSE,158,3.0,13.0,17,0.00,,,0.00,Wunderground v.1.13,2013-02-05 21:21:00,
2013-02-05 13:23:00,74.0,26.4,29.82,SSE,158,2.0,11.0,17,0.00,,,0.00,Wunderground v.1.13,2013-02-05 21:23:00,
2013-02-05 13:25:00,74.0,26.4,29.82,SSE,158,2.0,11.0,17,0.00,,,0.00,Wunderground v.1.13,2013-02-05 21:25:00,
2013-02-05 13:27:00,74.0,26.4,29.82,SSE,158,2.0,11.0,17,0.00,,,0.00,Wunderground v.1.13,2013-02-05 21:27:00,
2013-02-05 13:29:00,74.0,26.4,29.82,SSE,158,2.0,11.0,17,0.00,,,0.00,Wunderground v.1.13,2013-02-05 21:29:00,
2013-02-05 13:31:00,74.0,26.4,29.82,SSE,158,2.0,11.0,17,0.00,,,0.00,Wunderground v.1.13,2013-02-05 21:31:00,
2013-02-05 13:33:00,74.0,26.4,29.82,SSE,158,2.0,11.0,17,0.00,,,0.00,Wunderground v.1.13,2013-02-05 21:33:00,
2013-02-05 13:35:00,74.0,26.4,29.82,SSE,158,2.0,11.0,17,0.00,,,0.00,Wunderground v.1.13,2013-02-05 21:35:00,
2013-02-05 13:37:00,74.0,26.4,29.82,SSE,158,2.0,11.0,17,0.00,,,0.00,Wunderground v.1.13,2013-02-05 21:37:00,
2013-02-05 13:39:00,-999.9,-99.9,29.91,N/A,-737280,0.0,0.0,-32768,0.00,,,0.00,Wunderground v.1.13,2013-02-05 21:39:00,
2013-02-05 13:41:00,-999.9,-99.9,29.91,N/A,-737280,0.0,0.0,-32768,0.00,,,0.00,Wunderground v.1.13,2013-02-05 21:41:00,
2013-02-05 13:43:00,-999.9,-99.9,29.91,N/A,-737280,0.0,0.0,-32768,0.00,,,0.00,Wunderground v.1.13,2013-02-05 21:43:00,
2013-02-05 13:45:00,-999.9,-99.9,29.91,N/A,-737280,0.0,0.0,-32768,0.00,,,0.00,Wunderground v.1.13,2013-02-05 21:45:00,
2013-02-05 13:47:00,-999.9,-99.9,29.91,N/A,-737280,0.0,0.0,-32768,0.00,,,0.00,Wunderground v.1.13,2013-02-05 21:47:00,
2013-02-05 13:49:00,-999.9,-99.9,29.91,N/A,-737280,0.0,0.0,-32768,0.00,,,0.00,Wunderground v.1.13,2013-02-05 21:49:00,
2013-02-05 13:51:00,-999.9,-99.9,29.91,N/A,-737280,0.0,0.0,-32768,0.00,,,0.00,Wunderground v.1.13,2013-02-05 21:51:00,
2013-02-05 13:53:00,69.8,29.2,29.82,SSE,158,3.0,8.0,22,0.00,,,0.00,Wunderground v.1.13,2013-02-05 21:53:00,
2013-02-05 13:55:00,69.8,29.2,29.82,SSE,158,3.0,8.0,22,0.00,,,0.00,Wunderground v.1.13,2013-02-05 21:55:00,
2013-02-05 13:57:00,69.8,29.2,29.82,SSE,158,3.0,8.0,22,0.00,,,0.00,Wunderground v.1.13,2013-02-05 21:57:00,
2013-02-05 13:59:00,69.8,29.2,29.82,SSE,158,3.0,8.0,22,0.00,,,0.00,Wunderground v.1.13,2013-02-05 21:59:00,
2013-02-05 14:01:00,69.8,29.2,29.82,SSE,158,3.0,8.0,22,0.00,,,0.00,Wunderground v.1.13,2013-02-05 22:01:00,
2013-02-05 14:03:00,69.8,29.2,29.82,SSE,158,3.0,8.0,22,0.00,,,0.00,Wunderground v.1.13,2013-02-05 22:03:00,
2013-02-05 14:05:00,69.8,29.2,29.82,SSE,158,3.0,8.0,22,0.00,,,0.00,Wunderground v.1.13,2013-02-05 22:05:00,
2013-02-05 14:07:00,69.8,29.2,29.82,SSE,158,3.0,8.0,22,0.00,,,0.00,Wunderground v.1.13,2013-02-05 22:07:00,
2013-02-05 14:09:00,69.1,30.8,29.82,SSE,158,4.0,10.0,24,0.00,,,0.00,Wunderground v.1.13,2013-02-05 22:09:00,
2013-02-05 14:11:00,69.1,30.8,29.82,SSE,158,4.0,10.0,24,0.00,,,0.00,Wunderground v.1.13,2013-02-05 22:11:00,
2013-02-05 14:13:00,69.1,30.8,29.82,SSE,158,4.0,10.0,24,0.00,,,0.00,Wunderground v.1.13,2013-02-05 22:13:00,
2013-02-05 14:15:00,69.1,30.8,29.82,SSE,158,4.0,10.0,24,0.00,,,0.00,Wunderground v.1.13,2013-02-05 22:15:00,
2013-02-05 14:17:00,69.1,30.8,29.82,SSE,158,4.0,10.0,24,0.00,,,0.00,Wunderground v.1.13,2013-02-05 22:17:00,
2013-02-05 14:19:00,69.1,30.8,29.82,SSE,158,4.0,10.0,24,0.00,,,0.00,Wunderground v.1.13,2013-02-05 22:19:00,
2013-02-05 14:21:00,69.1,30.8,29.82,SSE,158,4.0,10.0,24,0.00,,,0.00,Wunderground v.1.13,2013-02-05 22:21:00,
2013-02-05 14:23:00,69.1,30.8,29.81,SSE,158,4.0,12.0,24,0.00,,,0.00,Wunderground v.1.13,2013-02-05 22:23:00,
2013-02-05 14:25:00,69.1,30.8,29.81,SSE,158,4.0,12.0,24,0.00,,,0.00,Wunderground v.1.13,2013-02-05 22:25:00,
2013-02-05 14:27:00,69.1,30.8,29.81,SSE,158,4.0,12.0,24,0.00,,,0.00,Wunderground v.1.13,2013-02-05 22:27:00,
2013-02-05 14:29:00,69.1,30.8,29.81,SSE,158,4.0,12.0,24,0.00,,,0.00,Wunderground v.1.13,2013-02-05 22:29:00,
2013-02-05 14:31:00,69.1,30.8,29.81,SSE,158,4.0,12.0,24,0.00,,,0.00,Wunderground v.1.13,2013-02-05 22:31:00,
2013-02-05 14:33:00,69.1,30.8,29.81,SSE,158,4.0,12.0,24,0.00,,,0.00,Wunderground v.1.13,2013-02-05 22:33:00,
2013-02-05 14:35:00,69.1,30.8,29.81,SSE,158,4.0,12.0,24,0.00,,,0.00,Wunderground v.1.13,2013-02-05 22:35:00,
2013-02-05 14:37:00,69.1,30.8,29.81,SSE,158,4.0,12.0,24,0.00,,,0.00,Wunderground v.1.13,2013-02-05 22:37:00,
2013-02-05 14:39:00,-999.9,-99.9,29.89,N/A,-737280,0.0,0.0,-32768,0.00,,,0.00,Wunderground v.1.13,2013-02-05 22:39:00,
2013-02-05 14:41:00,-999.9,-99.9,29.89,N/A,-737280,0.0,0.0,-32768,0.00,,,0.00,Wunderground v.1.13,2013-02-05 22:41:00,
2013-02-05 14:43:00,-999.9,-99.9,29.89,N/A,-737280,0.0,0.0,-32768,0.00,,,0.00,Wunderground v.1.13,2013-02-05 22:43:00,
2013-02-05 14:45:00,-999.9,-99.9,29.89,N/A,-737280,0.0,0.0,-32768,0.00,,,0.00,Wunderground v.1.13,2013-02-05 22:45:00,
2013-02-05 14:47:00,-999.9,-99.9,29.89,N/A,-737280,0.0,0.0,-32768,0.00,,,0.00,Wunderground v.1.13,2013-02-05 22:47:00,
2013-02-05 14:49:00,-999.9,-99.9,29.89,N/A,-737280,0.0,0.0,-32768,0.00,,,0.00,Wunderground v.1.13,2013-02-05 22:49:00,
2013-02-05 14:51:00,-999.9,-99.9,29.89,N/A,-737280,0.0,0.0,-32768,0.00,,,0.00,Wunderground v.1.13,2013-02-05 22:51:00,
2013-02-05 14:53:00,-999.9,-99.9,29.89,N/A,-737280,0.0,0.0,-32768,0.00,,,0.00,Wunderground v.1.13,2013-02-05 22:53:00,
2013-02-05 14:55:00,-999.9,-99.9,29.89,N/A,-737280,0.0,0.0,-32768,0.00,,,0.00,Wunderground v.1.13,2013-02-05 22:55:00,
2013-02-05 14:57:00,-999.9,-99.9,29.89,N/A,-737280,0.0,0.0,-32768,0.00,,,0.00,Wunderground v.1.13,2013-02-05 22:57:00,
2013-02-05 14:59:00,-999.9,-99.9,29.89,N/A,-737280,0.0,0.0,-32768,0.00,,,0.00,Wunderground v.1.13,2013-02-05 22:59:00,
2013-02-05 15:01:00,-999.9,-99.9,29.89,N/A,-737280,0.0,0.0,-32768,0.00,,,0.00,Wunderground v.1.13,2013-02-05 23:01:00,
2013-02-05 15:03:00,-999.9,-99.9,29.89,N/A,-737280,0.0,0.0,-32768,0.00,,,0.00,Wunderground v.1.13,2013-02-05 23:03:00,
2013-02-05 15:05:00,-999.9,-99.9,29.89,N/A,-737280,0.0,0.0,-32768,0.00,,,0.00,Wunderground v.1.13,2013-02-05 23:05:00,
2013-02-05 15:07:00,-999.9,-99.9,29.89,N/A,-737280,0.0,0.0,-32768,0.00,,,0.00,Wunderground v.1.13,2013-02-05 23:07:00,
2013-02-05 15:09:00,-999.9,-99.9,29.90,N/A,-737280,0.0,0.0,-32768,0.00,,,0.00,Wunderground v.1.13,2013-02-05 23:09:00,
2013-02-05 15:11:00,-999.9,-99.9,29.90,N/A,-737280,0.0,0.0,-32768,0.00,,,0.00,Wunderground v.1.13,2013-02-05 23:11:00,
2013-02-05 15:13:00,-999.9,-99.9,29.90,N/A,-737280,0.0,0.0,-32768,0.00,,,0.00,Wunderground v.1.13,2013-02-05 23:13:00,
2013-02-05 15:15:00,-999.9,-99.9,29.90,N/A,-737280,0.0,0.0,-32768,0.00,,,0.00,Wunderground v.1.13,2013-02-05 23:15:00,
2013-02-05 15:17:00,-999.9,-99.9,29.90,N/A,-737280,0.0,0.0,-32768,0.00,,,0.00,Wunderground v.1.13,2013-02-05 23:17:00,
2013-02-05 15:19:00,-999.9,-99.9,29.90,N/A,-737280,0.0,0.0,-32768,0.00,,,0.00,Wunderground v.1.13,2013-02-05 23:19:00,
2013-02-05 15:21:00,-999.9,-99.9,29.90,N/A,-737280,0.0,0.0,-32768,0.00,,,0.00,Wunderground v.1.13,2013-02-05 23:21:00,
2013-02-05 15:23:00,-999.9,-99.9,29.90,N/A,-737280,0.0,0.0,-32768,0.00,,,0.00,Wunderground v.1.13,2013-02-05 23:23:00,
2013-02-05 15:25:00,-999.9,-99.9,29.90,N/A,-737280,0.0,0.0,-32768,0.00,,,0.00,Wunderground v.1.13,2013-02-05 23:25:00,
2013-02-05 15:27:00,-999.9,-99.9,29.90,N/A,-737280,0.0,0.0,-32768,0.00,,,0.00,Wunderground v.1.13,2013-02-05 23:27:00,
2013-02-05 15:29:00,-999.9,-99.9,29.90,N/A,-737280,0.0,0.0,-32768,0.00,,,0.00,Wunderground v.1.13,2013-02-05 23:29:00,
2013-02-05 15:31:00,-999.9,-99.9,29.90,N/A,-737280,0.0,0.0,-32768,0.00,,,0.00,Wunderground v.1.13,2013-02-05 23:31:00,
2013-02-05 15:33:00,-999.9,-99.9,29.90,N/A,-737280,0.0,0.0,-32768,0.00,,,0.00,Wunderground v.1.13,2013-02-05 23:33:00,
2013-02-05 15:35:00,-999.9,-99.9,29.90,N/A,-737280,0.0,0.0,-32768,0.00,,,0.00,Wunderground v.1.13,2013-02-05 23:35:00,
2013-02-05 15:37:00,-999.9,-99.9,29.90,N/A,-737280,0.0,0.0,-32768,0.00,,,0.00,Wunderground v.1.13,2013-02-05 23:37:00,
2013-02-05 15:39:00,69.9,18.5,29.83,WSW,248,10.0,22.0,14,0.00,,,0.00,Wunderground v.1.13,2013-02-05 23:39:00,
2013-02-05 15:41:00,69.9,18.5,29.83,WSW,248,10.0,22.0,14,0.00,,,0.00,Wunderground v.1.13,2013-02-05 23:41:00,
2013-02-05 15:43:00,69.9,18.5,29.83,WSW,248,10.0,22.0,14,0.00,,,0.00,Wunderground v.1.13,2013-02-05 23:43:00,
2013-02-05 15:45:00,69.9,18.5,29.83,WSW,248,10.0,22.0,14,0.00,,,0.00,Wunderground v.1.13,2013-02-05 23:45:00,
2013-02-05 15:47:00,69.9,18.5,29.83,WSW,248,10.0,22.0,14,0.00,,,0.00,Wunderground v.1.13,2013-02-05 23:47:00,
2013-02-05 15:49:00,69.9,18.5,29.83,WSW,248,10.0,22.0,14,0.00,,,0.00,Wunderground v.1.13,2013-02-05 23:49:00,
2013-02-05 15:51:00,69.9,18.5,29.83,WSW,248,10.0,22.0,14,0.00,,,0.00,Wunderground v.1.13,2013-02-05 23:51:00,
2013-02-05 15:53:00,69.6,18.2,29.83,WSW,248,10.0,19.0,14,0.00,,,0.00,Wunderground v.1.13,2013-02-05 23:53:00,
2013-02-05 15:55:00,69.6,18.2,29.83,WSW,248,10.0,19.0,14,0.00,,,0.00,Wunderground v.1.13,2013-02-05 23:55:00,
2013-02-05 15:57:00,69.6,18.2,29.83,WSW,248,10.0,19.0,14,0.00,,,0.00,Wunderground v.1.13,2013-02-05 23:57:00,
2013-02-05 15:59:00,69.6,18.2,29.83,WSW,248,10.0,19.0,14,0.00,,,0.00,Wunderground v.1.13,2013-02-05 23:59:00,
2013-02-05 16:01:00,69.6,18.2,29.83,WSW,248,10.0,19.0,14,0.00,,,0.00,Wunderground v.1.13,2013-02-06 00:01:00,
2013-02-05 16:03:00,69.6,18.2,29.83,WSW,248,10.0,19.0,14,0.00,,,0.00,Wunderground v.1.13,2013-02-06 00:03:00,
2013-02-05 16:05:00,69.6,18.2,29.83,WSW,248,10.0,19.0,14,0.00,,,0.00,Wunderground v.1.13,2013-02-06 00:05:00,
2013-02-05 16:07:00,69.6,18.2,29.83,WSW,248,10.0,19.0,14,0.00,,,0.00,Wunderground v.1.13,2013-02-06 00:07:00,
2013-02-05 16:09:00,69.8,20.0,29.83,WSW,248,10.0,13.0,15,0.00,,,0.00,Wunderground v.1.13,2013-02-06 00:09:00,
2013-02-05 16:11:00,69.8,20.0,29.83,WSW,248,10.0,13.0,15,0.00,,,0.00,Wunderground v.1.13,2013-02-06 00:11:00,
2013-02-05 16:13:00,69.8,20.0,29.83,WSW,248,10.0,13.0,15,0.00,,,0.00,Wunderground v.1.13,2013-02-06 00:13:00,
2013-02-05 16:15:00,69.8,20.0,29.83,WSW,248,10.0,13.0,15,0.00,,,0.00,Wunderground v.1.13,2013-02-06 00:15:00,
2013-02-05 16:17:00,69.8,20.0,29.83,WSW,248,10.0,13.0,15,0.00,,,0.00,Wunderground v.1.13,2013-02-06 00:17:00,
2013-02-05 16:19:00,69.8,20.0,29.83,WSW,248,10.0,13.0,15,0.00,,,0.00,Wunderground v.1.13,2013-02-06 00:19:00,
2013-02-05 16:21:00,69.8,20.0,29.83,WSW,248,10.0,13.0,15,0.00,,,0.00,Wunderground v.1.13,2013-02-06 00:21:00,
2013-02-05 16:23:00,-999.9,-99.9,29.91,N/A,-737280,0.0,0.0,-32768,0.00,,,0.00,Wunderground v.1.13,2013-02-06 00:23:00,
2013-02-05 16:25:00,-999.9,-99.9,29.91,N/A,-737280,0.0,0.0,-32768,0.00,,,0.00,Wunderground v.1.13,2013-02-06 00:25:00,
2013-02-05 16:27:00,-999.9,-99.9,29.91,N/A,-737280,0.0,0.0,-32768,0.00,,,0.00,Wunderground v.1.13,2013-02-06 00:27:00,
2013-02-05 16:29:00,-999.9,-99.9,29.91,N/A,-737280,0.0,0.0,-32768,0.00,,,0.00,Wunderground v.1.13,2013-02-06 00:29:00,
2013-02-05 16:31:00,-999.9,-99.9,29.91,N/A,-737280,0.0,0.0,-32768,0.00,,,0.00,Wunderground v.1.13,2013-02-06 00:31:00,
2013-02-05 16:33:00,-999.9,-99.9,29.91,N/A,-737280,0.0,0.0,-32768,0.00,,,0.00,Wunderground v.1.13,2013-02-06 00:33:00,
2013-02-05 16:35:00,-999.9,-99.9,29.91,N/A,-737280,0.0,0.0,-32768,0.00,,,0.00,Wunderground v.1.13,2013-02-06 00:35:00,
2013-02-05 16:37:00,-999.9,-99.9,29.91,N/A,-737280,0.0,0.0,-32768,0.00,,,0.00,Wunderground v.1.13,2013-02-06 00:37:00,
2013-02-05 16:39:00,66.8,24.4,29.84,WSW,248,8.0,17.0,20,0.00,,,0.00,Wunderground v.1.13,2013-02-06 00:39:00,
2013-02-05 16:41:00,66.8,24.4,29.84,WSW,248,8.0,17.0,20,0.00,,,0.00,Wunderground v.1.13,2013-02-06 00:41:00,
2013-02-05 16:43:00,66.8,24.4,29.84,WSW,248,8.0,17.0,20,0.00,,,0.00,Wunderground v.1.13,2013-02-06 00:43:00,
2013-02-05 16:45:00,66.8,24.4,29.84,WSW,248,8.0,17.0,20,0.00,,,0.00,Wunderground v.1.13,2013-02-06 00:45:00,
2013-02-05 16:47:00,66.8,24.4,29.84,WSW,248,8.0,17.0,20,0.00,,,0.00,Wunderground v.1.13,2013-02-06 00:47:00,
2013-02-05 16:49:00,66.8,24.4,29.84,WSW,248,8.0,17.0,20,0.00,,,0.00,Wunderground v.1.13,2013-02-06 00:49:00,
2013-02-05 16:51:00,66.8,24.4,29.84,WSW,248,8.0,17.0,20,0.00,,,0.00,Wunderground v.1.13,2013-02-06 00:51:00,
2013-02-05 16:53:00,64.2,28.6,29.86,WSW,248,7.0,15.0,26,0.00,,,0.00,Wunderground v.1.13,2013-02-06 00:53:00,
2013-02-05 16:55:00,64.2,28.6,29.86,WSW,248,7.0,15.0,26,0.00,,,0.00,Wunderground v.1.13,2013-02-06 00:55:00,
2013-02-05 16:57:00,64.2,28.6,29.86,WSW,248,7.0,15.0,26,0.00,,,0.00,Wunderground v.1.13,2013-02-06 00:57:00,
2013-02-05 16:59:00,64.2,28.6,29.86,WSW,248,7.0,15.0,26,0.00,,,0.00,Wunderground v.1.13,2013-02-06 00:59:00,
2013-02-05 17:01:00,64.2,28.6,29.86,WSW,248,7.0,15.0,26,0.00,,,0.00,Wunderground v.1.13,2013-02-06 01:01:00,
2013-02-05 17:03:00,64.2,28.6,29.86,WSW,248,7.0,15.0,26,0.00,,,0.00,Wunderground v.1.13,2013-02-06 01:03:00,
2013-02-05 17:05:00,64.2,28.6,29.86,WSW,248,7.0,15.0,26,0.00,,,0.00,Wunderground v.1.13,2013-02-06 01:05:00,
2013-02-05 17:07:00,64.2,28.6,29.86,WSW,248,7.0,15.0,26,0.00,,,0.00,Wunderground v.1.13,2013-02-06 01:07:00,
2013-02-05 17:09:00,61.6,28.1,29.86,WSW,248,8.0,17.0,28,0.00,,,0.00,Wunderground v.1.13,2013-02-06 01:09:00,
2013-02-05 17:11:00,61.6,28.1,29.86,WSW,248,8.0,17.0,28,0.00,,,0.00,Wunderground v.1.13,2013-02-06 01:11:00,
2013-02-05 17:13:00,61.6,28.1,29.86,WSW,248,8.0,17.0,28,0.00,,,0.00,Wunderground v.1.13,2013-02-06 01:13:00,
2013-02-05 17:15:00,61.6,28.1,29.86,WSW,248,8.0,17.0,28,0.00,,,0.00,Wunderground v.1.13,2013-02-06 01:15:00,
2013-02-05 17:17:00,61.6,28.1,29.86,WSW,248,8.0,17.0,28,0.00,,,0.00,Wunderground v.1.13,2013-02-06 01:17:00,
2013-02-05 17:19:00,61.6,28.1,29.86,WSW,248,8.0,17.0,28,0.00,,,0.00,Wunderground v.1.13,2013-02-06 01:19:00,
2013-02-05 17:21:00,61.6,28.1,29.86,WSW,248,8.0,17.0,28,0.00,,,0.00,Wunderground v.1.13,2013-02-06 01:21:00,
2013-02-05 17:23:00,60.4,31.9,29.88,WSW,248,8.0,16.0,34,0.00,,,0.00,Wunderground v.1.13,2013-02-06 01:23:00,
2013-02-05 17:25:00,60.4,31.9,29.88,WSW,248,8.0,16.0,34,0.00,,,0.00,Wunderground v.1.13,2013-02-06 01:25:00,
2013-02-05 17:27:00,60.4,31.9,29.88,WSW,248,8.0,16.0,34,0.00,,,0.00,Wunderground v.1.13,2013-02-06 01:27:00,
2013-02-05 17:29:00,60.4,31.9,29.88,WSW,248,8.0,16.0,34,0.00,,,0.00,Wunderground v.1.13,2013-02-06 01:29:00,
2013-02-05 17:31:00,60.4,31.9,29.88,WSW,248,8.0,16.0,34,0.00,,,0.00,Wunderground v.1.13,2013-02-06 01:31:00,
2013-02-05 17:33:00,60.4,31.9,29.88,WSW,248,8.0,16.0,34,0.00,,,0.00,Wunderground v.1.13,2013-02-06 01:33:00,
2013-02-05 17:35:00,60.4,31.9,29.88,WSW,248,8.0,16.0,34,0.00,,,0.00,Wunderground v.1.13,2013-02-06 01:35:00,
2013-02-05 17:37:00,60.4,31.9,29.88,WSW,248,8.0,16.0,34,0.00,,,0.00,Wunderground v.1.13,2013-02-06 01:37:00,
2013-02-05 17:39:00,58.9,34.6,29.88,WSW,248,8.0,18.0,40,0.00,,,0.00,Wunderground v.1.13,2013-02-06 01:39:00,
2013-02-05 17:41:00,58.9,34.6,29.88,WSW,248,8.0,18.0,40,0.00,,,0.00,Wunderground v.1.13,2013-02-06 01:41:00,
2013-02-05 17:43:00,58.9,34.6,29.88,WSW,248,8.0,18.0,40,0.00,,,0.00,Wunderground v.1.13,2013-02-06 01:43:00,
2013-02-05 17:45:00,58.9,34.6,29.88,WSW,248,8.0,18.0,40,0.00,,,0.00,Wunderground v.1.13,2013-02-06 01:45:00,
2013-02-05 17:47:00,58.9,34.6,29.88,WSW,248,8.0,18.0,40,0.00,,,0.00,Wunderground v.1.13,2013-02-06 01:47:00,
2013-02-05 17:49:00,58.9,34.6,29.88,WSW,248,8.0,18.0,40,0.00,,,0.00,Wunderground v.1.13,2013-02-06 01:49:00,
2013-02-05 17:51:00,58.9,34.6,29.88,WSW,248,8.0,18.0,40,0.00,,,0.00,Wunderground v.1.13,2013-02-06 01:51:00,
2013-02-05 17:53:00,57.2,36.6,29.89,WSW,248,6.0,12.0,46,0.00,,,0.00,Wunderground v.1.13,2013-02-06 01:53:00,
2013-02-05 17:55:00,57.2,36.6,29.89,WSW,248,6.0,12.0,46,0.00,,,0.00,Wunderground v.1.13,2013-02-06 01:55:00,
2013-02-05 17:57:00,57.2,36.6,29.89,WSW,248,6.0,12.0,46,0.00,,,0.00,Wunderground v.1.13,2013-02-06 01:57:00,
2013-02-05 17:59:00,57.2,36.6,29.89,WSW,248,6.0,12.0,46,0.00,,,0.00,Wunderground v.1.13,2013-02-06 01:59:00,
2013-02-05 18:01:00,57.2,36.6,29.89,WSW,248,6.0,12.0,46,0.00,,,0.00,Wunderground v.1.13,2013-02-06 02:01:00,
2013-02-05 18:03:00,57.2,36.6,29.89,WSW,248,6.0,12.0,46,0.00,,,0.00,Wunderground v.1.13,2013-02-06 02:03:00,
2013-02-05 18:05:00,57.2,36.6,29.89,WSW,248,6.0,12.0,46,0.00,,,0.00,Wunderground v.1.13,2013-02-06 02:05:00,
2013-02-05 18:07:00,57.2,36.6,29.89,WSW,248,6.0,12.0,46,0.00,,,0.00,Wunderground v.1.13,2013-02-06 02:07:00,
2013-02-05 18:09:00,56.0,38.6,29.89,WSW,248,7.0,16.0,52,0.00,,,0.00,Wunderground v.1.13,2013-02-06 02:09:00,
2013-02-05 18:11:00,56.0,38.6,29.89,WSW,248,7.0,16.0,52,0.00,,,0.00,Wunderground v.1.13,2013-02-06 02:11:00,
2013-02-05 18:13:00,56.0,38.6,29.89,WSW,248,7.0,16.0,52,0.00,,,0.00,Wunderground v.1.13,2013-02-06 02:13:00,
2013-02-05 18:15:00,56.0,38.6,29.89,WSW,248,7.0,16.0,52,0.00,,,0.00,Wunderground v.1.13,2013-02-06 02:15:00,
2013-02-05 18:17:00,56.0,38.6,29.89,WSW,248,7.0,16.0,52,0.00,,,0.00,Wunderground v.1.13,2013-02-06 02:17:00,
2013-02-05 18:19:00,56.0,38.6,29.89,WSW,248,7.0,16.0,52,0.00,,,0.00,Wunderground v.1.13,2013-02-06 02:19:00,
2013-02-05 18:21:00,56.0,38.6,29.89,WSW,248,7.0,16.0,52,0.00,,,0.00,Wunderground v.1.13,2013-02-06 02:21:00,
2013-02-05 18:23:00,55.6,37.7,29.89,WSW,248,7.0,14.0,51,0.00,,,0.00,Wunderground v.1.13,2013-02-06 02:23:00,
2013-02-05 18:25:00,55.6,37.7,29.89,WSW,248,7.0,14.0,51,0.00,,,0.00,Wunderground v.1.13,2013-02-06 02:25:00,
2013-02-05 18:27:00,55.6,37.7,29.89,WSW,248,7.0,14.0,51,0.00,,,0.00,Wunderground v.1.13,2013-02-06 02:27:00,
2013-02-05 18:29:00,55.6,37.7,29.89,WSW,248,7.0,14.0,51,0.00,,,0.00,Wunderground v.1.13,2013-02-06 02:29:00,
2013-02-05 18:31:00,55.6,37.7,29.89,WSW,248,7.0,14.0,51,0.00,,,0.00,Wunderground v.1.13,2013-02-06 02:31:00,
2013-02-05 18:33:00,55.6,37.7,29.89,WSW,248,7.0,14.0,51,0.00,,,0.00,Wunderground v.1.13,2013-02-06 02:33:00,
2013-02-05 18:35:00,55.6,37.7,29.89,WSW,248,7.0,14.0,51,0.00,,,0.00,Wunderground v.1.13,2013-02-06 02:35:00,
2013-02-05 18:37:00,55.6,37.7,29.89,WSW,248,7.0,14.0,51,0.00,,,0.00,Wunderground v.1.13,2013-02-06 02:37:00,
2013-02-05 18:39:00,55.3,37.0,29.90,WSW,248,6.0,13.0,50,0.00,,,0.00,Wunderground v.1.13,2013-02-06 02:39:00,
2013-02-05 18:41:00,55.3,37.0,29.90,WSW,248,6.0,13.0,50,0.00,,,0.00,Wunderground v.1.13,2013-02-06 02:41:00,
2013-02-05 18:43:00,55.3,37.0,29.90,WSW,248,6.0,13.0,50,0.00,,,0.00,Wunderground v.1.13,2013-02-06 02:43:00,
2013-02-05 18:45:00,55.3,37.0,29.90,WSW,248,6.0,13.0,50,0.00,,,0.00,Wunderground v.1.13,2013-02-06 02:45:00,
2013-02-05 18:47:00,55.3,37.0,29.90,WSW,248,6.0,13.0,50,0.00,,,0.00,Wunderground v.1.13,2013-02-06 02:47:00,
2013-02-05 18:49:00,55.3,37.0,29.90,WSW,248,6.0,13.0,50,0.00,,,0.00,Wunderground v.1.13,2013-02-06 02:49:00,
2013-02-05 18:51:00,55.3,37.0,29.90,WSW,248,6.0,13.0,50,0.00,,,0.00,Wunderground v.1.13,2013-02-06 02:51:00,
2013-02-05 18:53:00,55.4,37.6,29.90,WSW,248,7.0,14.0,51,0.00,,,0.00,Wunderground v.1.13,2013-02-06 02:53:00,
2013-02-05 18:55:00,55.4,37.6,29.90,WSW,248,7.0,14.0,51,0.00,,,0.00,Wunderground v.1.13,2013-02-06 02:55:00,
2013-02-05 18:57:00,55.4,37.6,29.90,WSW,248,7.0,14.0,51,0.00,,,0.00,Wunderground v.1.13,2013-02-06 02:57:00,
2013-02-05 18:59:00,55.4,37.6,29.90,WSW,248,7.0,14.0,51,0.00,,,0.00,Wunderground v.1.13,2013-02-06 02:59:00,
2013-02-05 19:01:00,55.4,37.6,29.90,WSW,248,7.0,14.0,51,0.00,,,0.00,Wunderground v.1.13,2013-02-06 03:01:00,
2013-02-05 19:03:00,55.4,37.6,29.90,WSW,248,7.0,14.0,51,0.00,,,0.00,Wunderground v.1.13,2013-02-06 03:03:00,
2013-02-05 19:05:00,55.4,37.6,29.90,WSW,248,7.0,14.0,51,0.00,,,0.00,Wunderground v.1.13,2013-02-06 03:05:00,
2013-02-05 19:07:00,55.4,37.6,29.90,WSW,248,7.0,14.0,51,0.00,,,0.00,Wunderground v.1.13,2013-02-06 03:07:00,
2013-02-05 19:09:00,55.4,38.5,29.88,SW,225,4.0,13.0,53,0.00,,,0.00,Wunderground v.1.13,2013-02-06 03:09:00,
2013-02-05 19:11:00,55.4,38.5,29.88,SW,225,4.0,13.0,53,0.00,,,0.00,Wunderground v.1.13,2013-02-06 03:11:00,
2013-02-05 19:13:00,55.4,38.5,29.88,SW,225,4.0,13.0,53,0.00,,,0.00,Wunderground v.1.13,2013-02-06 03:13:00,
2013-02-05 19:15:00,55.4,38.5,29.88,SW,225,4.0,13.0,53,0.00,,,0.00,Wunderground v.1.13,2013-02-06 03:15:00,
2013-02-05 19:17:00,55.4,38.5,29.88,SW,225,4.0,13.0,53,0.00,,,0.00,Wunderground v.1.13,2013-02-06 03:17:00,
2013-02-05 19:19:00,55.4,38.5,29.88,SW,225,4.0,13.0,53,0.00,,,0.00,Wunderground v.1.13,2013-02-06 03:19:00,
2013-02-05 19:21:00,55.4,38.5,29.88,SW,225,4.0,13.0,53,0.00,,,0.00,Wunderground v.1.13,2013-02-06 03:21:00,
2013-02-05 19:23:00,55.3,38.9,29.88,SW,225,2.0,10.0,54,0.00,,,0.00,Wunderground v.1.13,2013-02-06 03:23:00,
2013-02-05 19:25:00,55.3,38.9,29.88,SW,225,2.0,10.0,54,0.00,,,0.00,Wunderground v.1.13,2013-02-06 03:25:00,
2013-02-05 19:27:00,55.4,39.0,29.88,WSW,241,3.0,3.0,54,0.00,,,0.00,Wunderground v.1.13,2013-02-06 03:27:00,
2013-02-05 19:28:00,55.3,38.9,29.88,WSW,240,2.0,5.0,54,0.00,,,0.00,Wunderground v.1.13,2013-02-06 03:28:00,
2013-02-05 19:30:00,55.3,38.9,29.88,WSW,239,2.0,2.0,54,0.00,,,0.00,Wunderground v.1.13,2013-02-06 03:30:00,
2013-02-05 19:35:00,55.3,38.9,29.88,SW,234,2.0,5.0,54,0.00,,,0.00,Wunderground v.1.13,2013-02-06 03:35:00,
2013-02-05 19:41:00,55.3,38.9,29.88,WSW,248,2.0,5.0,54,0.00,,,0.00,Wunderground v.1.13,2013-02-06 03:41:00,
2013-02-05 19:47:00,55.3,38.4,29.88,SSW,203,2.0,6.0,53,0.00,,,0.00,Wunderground v.1.13,2013-02-06 03:47:00,
2013-02-05 19:52:00,55.3,38.0,29.88,SW,219,2.0,7.0,52,0.00,,,0.00,Wunderground v.1.13,2013-02-06 03:52:00,
2013-02-05 19:57:00,55.4,38.1,29.88,SSW,200,3.0,7.0,52,0.00,,,0.00,Wunderground v.1.13,2013-02-06 03:57:00,
2013-02-05 20:02:00,55.7,39.3,29.89,WSW,244,5.0,7.0,54,0.00,,,0.00,Wunderground v.1.13,2013-02-06 04:02:00,
2013-02-05 20:08:00,55.4,40.9,29.89,WSW,243,7.0,15.0,58,0.00,,,0.00,Wunderground v.1.13,2013-02-06 04:08:00,
2013-02-05 20:14:00,55.1,41.0,29.86,SW,217,8.0,12.0,59,0.00,,,0.00,Wunderground v.1.13,2013-02-06 04:14:00,
2013-02-05 20:20:00,54.7,40.6,29.86,SW,222,8.0,9.0,59,0.00,,,0.00,Wunderground v.1.13,2013-02-06 04:20:00,
2013-02-05 20:25:00,54.5,40.5,29.86,WSW,250,8.0,11.0,59,0.00,,,0.00,Wunderground v.1.13,2013-02-06 04:25:00,
2013-02-05 20:31:00,54.5,40.9,29.86,SW,232,6.0,7.0,60,0.00,,,0.00,Wunderground v.1.13,2013-02-06 04:31:00,
2013-02-05 20:37:00,54.4,40.8,29.86,SW,226,4.0,6.0,60,0.00,,,0.00,Wunderground v.1.13,2013-02-06 04:37:00,
2013-02-05 20:43:00,54.4,40.8,29.86,SSE,167,4.0,5.0,60,0.00,,,0.00,Wunderground v.1.13,2013-02-06 04:43:00,
2013-02-05 20:48:00,54.4,40.8,29.86,WSW,251,4.0,6.0,60,0.00,,,0.00,Wunderground v.1.13,2013-02-06 04:48:00,
2013-02-05 20:54:00,54.4,39.9,29.86,SW,219,5.0,12.0,58,0.00,,,0.00,Wunderground v.1.13,2013-02-06 04:54:00,
2013-02-05 20:59:00,54.5,38.2,29.87,WSW,239,5.0,5.0,54,0.00,,,0.00,Wunderground v.1.13,2013-02-06 04:59:00,
2013-02-05 21:00:00,54.5,37.7,29.87,SW,229,5.0,5.0,53,0.00,,,0.00,Wunderground v.1.13,2013-02-06 05:00:00,
2013-02-05 21:05:00,54.5,36.2,29.87,SW,227,5.0,10.0,50,0.00,,,0.00,Wunderground v.1.13,2013-02-06 05:05:00,
2013-02-05 21:11:00,54.2,36.5,29.87,SW,230,6.0,8.0,51,0.00,,,0.00,Wunderground v.1.13,2013-02-06 05:11:00,
2013-02-05 21:16:00,54.2,36.9,29.86,SW,236,5.0,12.0,52,0.00,,,0.00,Wunderground v.1.13,2013-02-06 05:16:00,
2013-02-05 21:22:00,54.7,38.8,29.86,SW,236,7.0,8.0,55,0.00,,,0.00,Wunderground v.1.13,2013-02-06 05:22:00,
2013-02-05 21:27:00,54.7,40.6,29.86,SSW,209,8.0,11.0,59,0.00,,,0.00,Wunderground v.1.13,2013-02-06 05:27:00,
2013-02-05 21:32:00,54.2,41.5,29.85,SW,227,9.0,14.0,62,0.00,,,0.00,Wunderground v.1.13,2013-02-06 05:32:00,
2013-02-05 21:37:00,53.8,41.1,29.85,SW,227,9.0,10.0,62,0.00,,,0.00,Wunderground v.1.13,2013-02-06 05:37:00,
2013-02-05 21:43:00,53.5,40.8,29.85,WSW,256,7.0,8.0,62,0.00,,,0.00,Wunderground v.1.13,2013-02-06 05:43:00,
2013-02-05 21:49:00,53.1,42.0,29.86,SW,222,7.0,9.0,66,0.00,,,0.00,Wunderground v.1.13,2013-02-06 05:49:00,
2013-02-05 21:55:00,52.5,41.9,29.86,SW,215,7.0,11.0,67,0.00,,,0.00,Wunderground v.1.13,2013-02-06 05:55:00,
2013-02-05 22:00:00,52.0,41.4,29.87,WSW,244,8.0,13.0,67,0.00,,,0.00,Wunderground v.1.13,2013-02-06 06:00:00,
2013-02-05 22:05:00,51.9,42.0,29.87,WSW,250,11.0,12.0,69,0.00,,,0.00,Wunderground v.1.13,2013-02-06 06:05:00,
2013-02-05 22:11:00,51.3,42.9,29.87,WSW,254,11.0,11.0,73,0.00,,,0.00,Wunderground v.1.13,2013-02-06 06:11:00,
2013-02-05 22:17:00,50.7,42.7,29.86,West,277,10.0,11.0,74,0.00,,,0.00,Wunderground v.1.13,2013-02-06 06:17:00,
2013-02-05 22:23:00,50.5,42.5,29.86,SW,233,10.0,13.0,74,0.00,,,0.00,Wunderground v.1.13,2013-02-06 06:23:00,
2013-02-05 22:28:00,50.4,42.4,29.86,WSW,256,10.0,16.0,74,0.00,,,0.00,Wunderground v.1.13,2013-02-06 06:28:00,
2013-02-05 22:34:00,49.8,42.9,29.86,SSW,206,12.0,17.0,77,0.00,,,0.00,Wunderground v.1.13,2013-02-06 06:34:00,
2013-02-05 22:40:00,49.2,42.6,29.86,SW,236,13.0,13.0,78,0.00,,,0.00,Wunderground v.1.13,2013-02-06 06:40:00,
2013-02-05 22:45:00,48.8,42.2,29.86,SW,233,13.0,18.0,78,0.00,,,0.00,Wunderground v.1.13,2013-02-06 06:45:00,
2013-02-05 22:51:00,48.2,42.3,29.86,WSW,239,13.0,14.0,80,0.00,,,0.00,Wunderground v.1.13,2013-02-06 06:51:00,
2013-02-05 22:56:00,47.9,42.3,29.86,SSW,212,14.0,14.0,81,0.00,,,0.00,Wunderground v.1.13,2013-02-06 06:56:00,
2013-02-05 23:02:00,47.6,42.4,29.86,SW,227,14.0,20.0,82,0.00,,,0.00,Wunderground v.1.13,2013-02-06 07:02:00,
2013-02-05 23:07:00,47.4,42.2,29.86,SSW,200,13.0,16.0,82,0.00,,,0.00,Wunderground v.1.13,2013-02-06 07:07:00,
2013-02-05 23:13:00,47.0,42.4,29.86,WSW,239,13.0,14.0,84,0.00,,,0.00,Wunderground v.1.13,2013-02-06 07:13:00,
2013-02-05 23:19:00,46.8,42.2,29.86,South,188,13.0,16.0,84,0.00,,,0.00,Wunderground v.1.13,2013-02-06 07:19:00,
2013-02-05 23:25:00,46.7,42.1,29.86,SW,224,13.0,13.0,84,0.00,,,0.00,Wunderground v.1.13,2013-02-06 07:25:00,
2013-02-05 23:31:00,46.5,42.2,29.85,WSW,253,11.0,16.0,85,0.00,,,0.00,Wunderground v.1.13,2013-02-06 07:31:00,
2013-02-05 23:37:00,46.5,41.9,29.85,SW,216,10.0,12.0,84,0.00,,,0.00,Wunderground v.1.13,2013-02-06 07:37:00,
2013-02-05 23:42:00,46.5,41.9,29.85,SW,229,10.0,16.0,84,0.00,,,0.00,Wunderground v.1.13,2013-02-06 07:42:00,
2013-02-05 23:48:00,46.4,41.8,29.85,SW,227,12.0,19.0,84,0.00,,,0.00,Wunderground v.1.13,2013-02-06 07:48:00,
2013-02-05 23:53:00,46.4,41.8,29.85,SW,223,11.0,16.0,84,0.00,,,0.00,Wunderground v.1.13,2013-02-06 07:53:00,
2013-02-05 23:59:00,46.2,41.6,29.86,SW,224,10.0,12.0,84,0.00,,,0.00,Wunderground v.1.13,2013-02-06 07:59:00,